Wetterdaten: Mittwoch, 03.05.2017
Datum Zeit Temp. A. Pool Temp. Feuchte A. Luftdruck Regen Wind Richtung Richtung Sonnenschein ET UV Solar Taupunkt Windchill Windben Empfang
03.05.2017 00:00 9,2 C 13,9 C 78 % 1015,9 hPa 0,0 l/m 4,8 km/h (1 Bft) O-NO 67 0 min 0,025 mm 0,0 UV-I 0 W/m 5,6 C 9,2 C 8,0 km/h (2 Bft) 93,86 %
03.05.2017 00:05 9,2 C 13,9 C 79 % 1015,9 hPa 0,0 l/m 6,4 km/h (2 Bft) NO 45 0 min 0,000 mm 0,0 UV-I 0 W/m 5,8 C 9,2 C 14,5 km/h (3 Bft) 91,23 %
03.05.2017 00:10 9,4 C 13,9 C 78 % 1015,9 hPa 0,0 l/m 8,0 km/h (2 Bft) NO 45 0 min 0,000 mm 0,0 UV-I 0 W/m 5,8 C 8,2 C 16,1 km/h (3 Bft) 91,23 %
03.05.2017 00:15 9,6 C 13,9 C 78 % 1015,8 hPa 0,0 l/m 12,9 km/h (3 Bft) O-NO 67 0 min 0,000 mm 0,0 UV-I 0 W/m 6,0 C 5,6 C 20,9 km/h (4 Bft) 93,86 %
03.05.2017 00:20 9,8 C 13,9 C 78 % 1015,8 hPa 0,0 l/m 14,5 km/h (3 Bft) O-NO 67 0 min 0,000 mm 0,0 UV-I 0 W/m 6,1 C 5,1 C 20,9 km/h (4 Bft) 95,61 %
03.05.2017 00:25 9,8 C 13,3 C 78 % 1015,8 hPa 0,0 l/m 14,5 km/h (3 Bft) O-NO 67 0 min 0,000 mm 0,0 UV-I 0 W/m 6,1 C 5,1 C 20,9 km/h (4 Bft) 98,25 %
03.05.2017 00:30 9,9 C 13,3 C 78 % 1015,8 hPa 0,0 l/m 14,5 km/h (3 Bft) O-NO 67 0 min 0,000 mm 0,0 UV-I 0 W/m 6,2 C 5,2 C 20,9 km/h (4 Bft) 100,00 %
03.05.2017 00:35 9,9 C 13,3 C 78 % 1015,8 hPa 0,0 l/m 16,1 km/h (3 Bft) O-NO 67 0 min 0,000 mm 0,0 UV-I 0 W/m 6,2 C 4,6 C 29,0 km/h (5 Bft) 100,00 %
03.05.2017 00:40 10,0 C 13,3 C 78 % 1015,7 hPa 0,0 l/m 16,1 km/h (3 Bft) O-NO 67 0 min 0,000 mm 0,0 UV-I 0 W/m 6,3 C 4,7 C 29,0 km/h (5 Bft) 98,25 %
03.05.2017 00:45 9,9 C 13,3 C 78 % 1015,7 hPa 0,0 l/m 12,9 km/h (3 Bft) O-NO 67 0 min 0,000 mm 0,0 UV-I 0 W/m 6,2 C 6,0 C 20,9 km/h (4 Bft) 97,37 %
03.05.2017 00:50 9,8 C 13,3 C 79 % 1015,7 hPa 0,0 l/m 11,3 km/h (2 Bft) O-NO 67 0 min 0,000 mm 0,0 UV-I 0 W/m 6,3 C 6,6 C 17,7 km/h (3 Bft) 97,37 %
03.05.2017 00:55 9,7 C 13,3 C 80 % 1015,7 hPa 0,0 l/m 12,9 km/h (3 Bft) O-NO 67 0 min 0,000 mm 0,0 UV-I 0 W/m 6,4 C 5,7 C 19,3 km/h (3 Bft) 97,37 %
03.05.2017 01:00 9,7 C 13,3 C 80 % 1015,7 hPa 0,0 l/m 16,1 km/h (3 Bft) O-NO 67 0 min 0,025 mm 0,0 UV-I 0 W/m 6,4 C 4,3 C 24,1 km/h (4 Bft) 98,25 %
03.05.2017 01:05 9,7 C 13,3 C 80 % 1015,7 hPa 0,0 l/m 14,5 km/h (3 Bft) O-NO 67 0 min 0,000 mm 0,0 UV-I 0 W/m 6,4 C 5,0 C 20,9 km/h (4 Bft) 100,00 %
03.05.2017 01:10 9,7 C 13,3 C 80 % 1015,7 hPa 0,0 l/m 12,9 km/h (3 Bft) O-NO 67 0 min 0,000 mm 0,0 UV-I 0 W/m 6,4 C 5,7 C 19,3 km/h (3 Bft) 100,00 %
03.05.2017 01:15 9,6 C 13,3 C 80 % 1015,7 hPa 0,0 l/m 12,9 km/h (3 Bft) O-NO 67 0 min 0,000 mm 0,0 UV-I 0 W/m 6,3 C 5,6 C 19,3 km/h (3 Bft) 99,12 %
03.05.2017 01:20 9,5 C 13,3 C 81 % 1015,7 hPa 0,0 l/m 11,3 km/h (2 Bft) O-NO 67 0 min 0,000 mm 0,0 UV-I 0 W/m 6,4 C 6,3 C 19,3 km/h (3 Bft) 98,25 %
03.05.2017 01:25 9,4 C 13,3 C 81 % 1015,7 hPa 0,0 l/m 8,0 km/h (2 Bft) O 90 0 min 0,000 mm 0,0 UV-I 0 W/m 6,3 C 8,2 C 17,7 km/h (3 Bft) 95,61 %
03.05.2017 01:30 9,4 C 13,3 C 81 % 1015,7 hPa 0,0 l/m 8,0 km/h (2 Bft) O 90 0 min 0,000 mm 0,0 UV-I 0 W/m 6,3 C 8,2 C 14,5 km/h (3 Bft) 96,49 %
03.05.2017 01:35 9,5 C 13,3 C 81 % 1015,7 hPa 0,0 l/m 9,7 km/h (2 Bft) O-NO 67 0 min 0,000 mm 0,0 UV-I 0 W/m 6,4 C 7,2 C 14,5 km/h (3 Bft) 96,49 %
03.05.2017 01:40 9,4 C 13,3 C 81 % 1015,7 hPa 0,0 l/m 6,4 km/h (2 Bft) O-NO 67 0 min 0,000 mm 0,0 UV-I 0 W/m 6,3 C 9,4 C 14,5 km/h (3 Bft) 97,37 %
03.05.2017 01:45 9,3 C 13,3 C 82 % 1015,7 hPa 0,0 l/m 8,0 km/h (2 Bft) O-NO 67 0 min 0,000 mm 0,0 UV-I 0 W/m 6,4 C 8,1 C 12,9 km/h (3 Bft) 95,61 %
03.05.2017 01:50 9,2 C 13,3 C 82 % 1015,7 hPa 0,0 l/m 9,7 km/h (2 Bft) O-NO 67 0 min 0,000 mm 0,0 UV-I 0 W/m 6,3 C 6,9 C 14,5 km/h (3 Bft) 96,49 %
03.05.2017 01:55 9,3 C 13,3 C 82 % 1015,7 hPa 0,0 l/m 9,7 km/h (2 Bft) O-NO 67 0 min 0,000 mm 0,0 UV-I 0 W/m 6,4 C 7,0 C 16,1 km/h (3 Bft) 98,25 %
03.05.2017 02:00 9,3 C 13,3 C 82 % 1015,6 hPa 0,0 l/m 8,0 km/h (2 Bft) O-NO 67 0 min 0,025 mm 0,0 UV-I 0 W/m 6,4 C 8,1 C 14,5 km/h (3 Bft) 98,25 %
03.05.2017 02:05 9,2 C 13,3 C 82 % 1015,7 hPa 0,0 l/m 9,7 km/h (2 Bft) O-NO 67 0 min 0,000 mm 0,0 UV-I 0 W/m 6,3 C 6,9 C 17,7 km/h (3 Bft) 95,61 %
03.05.2017 02:10 9,2 C 13,3 C 82 % 1015,6 hPa 0,0 l/m 8,0 km/h (2 Bft) O-NO 67 0 min 0,000 mm 0,0 UV-I 0 W/m 6,3 C 8,0 C 14,5 km/h (3 Bft) 96,49 %
03.05.2017 02:15 9,2 C 13,3 C 82 % 1015,5 hPa 0,0 l/m 8,0 km/h (2 Bft) O-NO 67 0 min 0,000 mm 0,0 UV-I 0 W/m 6,3 C 8,0 C 14,5 km/h (3 Bft) 98,25 %
03.05.2017 02:20 9,2 C 13,3 C 82 % 1015,5 hPa 0,0 l/m 11,3 km/h (2 Bft) O-NO 67 0 min 0,000 mm 0,0 UV-I 0 W/m 6,3 C 6,0 C 19,3 km/h (3 Bft) 97,37 %
03.05.2017 02:25 9,2 C 13,3 C 82 % 1015,5 hPa 0,0 l/m 14,5 km/h (3 Bft) O-NO 67 0 min 0,000 mm 0,0 UV-I 0 W/m 6,3 C 4,4 C 24,1 km/h (4 Bft) 98,25 %
03.05.2017 02:30 9,3 C 13,3 C 82 % 1015,5 hPa 0,0 l/m 12,9 km/h (3 Bft) O-NO 67 0 min 0,000 mm 0,0 UV-I 0 W/m 6,4 C 5,3 C 27,4 km/h (4 Bft) 99,12 %
03.05.2017 02:35 9,3 C 13,3 C 82 % 1015,5 hPa 0,0 l/m 14,5 km/h (3 Bft) O-NO 67 0 min 0,000 mm 0,0 UV-I 0 W/m 6,4 C 4,5 C 20,9 km/h (4 Bft) 96,49 %
03.05.2017 02:40 9,2 C 13,3 C 82 % 1015,5 hPa 0,0 l/m 12,9 km/h (3 Bft) O-NO 67 0 min 0,000 mm 0,0 UV-I 0 W/m 6,3 C 5,1 C 20,9 km/h (4 Bft) 98,25 %
03.05.2017 02:45 9,2 C 13,3 C 82 % 1015,4 hPa 0,0 l/m 14,5 km/h (3 Bft) O-NO 67 0 min 0,000 mm 0,0 UV-I 0 W/m 6,3 C 4,4 C 22,5 km/h (4 Bft) 96,49 %
03.05.2017 02:50 9,2 C 13,3 C 82 % 1015,4 hPa 0,0 l/m 16,1 km/h (3 Bft) O-NO 67 0 min 0,000 mm 0,0 UV-I 0 W/m 6,3 C 3,7 C 24,1 km/h (4 Bft) 95,61 %
03.05.2017 02:55 9,3 C 13,3 C 82 % 1015,5 hPa 0,0 l/m 16,1 km/h (3 Bft) O-NO 67 0 min 0,000 mm 0,0 UV-I 0 W/m 6,4 C 3,8 C 25,7 km/h (4 Bft) 96,49 %
03.05.2017 03:00 9,3 C 13,3 C 82 % 1015,5 hPa 0,0 l/m 16,1 km/h (3 Bft) O-NO 67 0 min 0,025 mm 0,0 UV-I 0 W/m 6,4 C 3,8 C 29,0 km/h (5 Bft) 95,61 %
03.05.2017 03:05 9,3 C 13,3 C 81 % 1015,5 hPa 0,0 l/m 16,1 km/h (3 Bft) O-NO 67 0 min 0,000 mm 0,0 UV-I 0 W/m 6,2 C 3,8 C 24,1 km/h (4 Bft) 100,00 %
03.05.2017 03:10 9,3 C 13,3 C 81 % 1015,5 hPa 0,0 l/m 17,7 km/h (3 Bft) O-NO 67 0 min 0,000 mm 0,0 UV-I 0 W/m 6,2 C 3,2 C 29,0 km/h (5 Bft) 100,00 %
03.05.2017 03:15 9,3 C 13,3 C 81 % 1015,5 hPa 0,0 l/m 17,7 km/h (3 Bft) O-NO 67 0 min 0,000 mm 0,0 UV-I 0 W/m 6,2 C 3,2 C 27,4 km/h (4 Bft) 100,00 %
03.05.2017 03:20 9,3 C 13,3 C 81 % 1015,4 hPa 0,0 l/m 16,1 km/h (3 Bft) O-NO 67 0 min 0,000 mm 0,0 UV-I 0 W/m 6,2 C 3,8 C 25,7 km/h (4 Bft) 99,12 %
03.05.2017 03:25 9,3 C 13,3 C 81 % 1015,3 hPa 0,0 l/m 17,7 km/h (3 Bft) O-NO 67 0 min 0,000 mm 0,0 UV-I 0 W/m 6,2 C 3,2 C 25,7 km/h (4 Bft) 97,37 %
03.05.2017 03:30 9,3 C 13,3 C 81 % 1015,3 hPa 0,0 l/m 17,7 km/h (3 Bft) O-NO 67 0 min 0,000 mm 0,0 UV-I 0 W/m 6,2 C 3,2 C 30,6 km/h (5 Bft) 97,37 %
03.05.2017 03:35 9,4 C 13,3 C 80 % 1015,4 hPa 0,0 l/m 17,7 km/h (3 Bft) O-NO 67 0 min 0,000 mm 0,0 UV-I 0 W/m 6,1 C 3,3 C 29,0 km/h (5 Bft) 97,37 %
03.05.2017 03:40 9,4 C 13,3 C 80 % 1015,3 hPa 0,0 l/m 19,3 km/h (3 Bft) O-NO 67 0 min 0,000 mm 0,0 UV-I 0 W/m 6,1 C 2,7 C 30,6 km/h (5 Bft) 96,49 %
03.05.2017 03:45 9,4 C 13,3 C 80 % 1015,3 hPa 0,0 l/m 19,3 km/h (3 Bft) O-NO 67 0 min 0,000 mm 0,0 UV-I 0 W/m 6,1 C 2,7 C 25,7 km/h (4 Bft) 98,25 %
03.05.2017 03:50 9,4 C 13,3 C 80 % 1015,3 hPa 0,0 l/m 17,7 km/h (3 Bft) O-NO 67 0 min 0,000 mm 0,0 UV-I 0 W/m 6,1 C 3,3 C 30,6 km/h (5 Bft) 99,12 %
03.05.2017 03:55 9,4 C 13,3 C 80 % 1015,3 hPa 0,0 l/m 19,3 km/h (3 Bft) O-NO 67 0 min 0,000 mm 0,0 UV-I 0 W/m 6,1 C 2,7 C 30,6 km/h (5 Bft) 97,37 %
03.05.2017 04:00 9,3 C 13,3 C 80 % 1015,3 hPa 0,0 l/m 17,7 km/h (3 Bft) O-NO 67 0 min 0,051 mm 0,0 UV-I 0 W/m 6,0 C 3,2 C 27,4 km/h (4 Bft) 97,37 %
03.05.2017 04:05 9,3 C 13,3 C 80 % 1015,2 hPa 0,0 l/m 19,3 km/h (3 Bft) O-NO 67 0 min 0,000 mm 0,0 UV-I 0 W/m 6,0 C 2,6 C 27,4 km/h (4 Bft) 70,18 %
03.05.2017 04:10 9,3 C 13,3 C 80 % 1015,2 hPa 0,0 l/m 17,7 km/h (3 Bft) O-NO 67 0 min 0,000 mm 0,0 UV-I 0 W/m 6,0 C 3,2 C 25,7 km/h (4 Bft) 92,11 %
03.05.2017 04:15 9,2 C 13,3 C 81 % 1015,2 hPa 0,0 l/m 16,1 km/h (3 Bft) O-NO 67 0 min 0,000 mm 0,0 UV-I 0 W/m 6,1 C 3,7 C 24,1 km/h (4 Bft) 92,11 %
03.05.2017 04:20 9,1 C 13,3 C 81 % 1015,3 hPa 0,0 l/m 16,1 km/h (3 Bft) O-NO 67 0 min 0,000 mm 0,0 UV-I 0 W/m 6,0 C 3,6 C 24,1 km/h (4 Bft) 93,86 %
03.05.2017 04:25 9,1 C 12,8 C 81 % 1015,3 hPa 0,0 l/m 16,1 km/h (3 Bft) O-NO 67 0 min 0,000 mm 0,0 UV-I 0 W/m 6,0 C 3,6 C 27,4 km/h (4 Bft) 93,86 %
03.05.2017 04:30 9,1 C 12,8 C 81 % 1015,3 hPa 0,0 l/m 14,5 km/h (3 Bft) O-NO 67 0 min 0,000 mm 0,0 UV-I 0 W/m 6,0 C 4,3 C 24,1 km/h (4 Bft) 100,00 %
03.05.2017 04:35 9,1 C 12,8 C 81 % 1015,2 hPa 0,0 l/m 17,7 km/h (3 Bft) O-NO 67 0 min 0,000 mm 0,0 UV-I 0 W/m 6,0 C 2,9 C 30,6 km/h (5 Bft) 99,12 %
03.05.2017 04:40 9,1 C 12,8 C 81 % 1015,2 hPa 0,0 l/m 16,1 km/h (3 Bft) O-NO 67 0 min 0,000 mm 0,0 UV-I 0 W/m 6,0 C 3,6 C 29,0 km/h (5 Bft) 99,12 %
03.05.2017 04:45 9,0 C 12,8 C 81 % 1015,2 hPa 0,0 l/m 16,1 km/h (3 Bft) O-NO 67 0 min 0,000 mm 0,0 UV-I 0 W/m 5,9 C 3,5 C 22,5 km/h (4 Bft) 100,00 %
03.05.2017 04:50 9,1 C 12,8 C 81 % 1015,1 hPa 0,0 l/m 17,7 km/h (3 Bft) O-NO 67 0 min 0,000 mm 0,0 UV-I 0 W/m 6,0 C 2,9 C 25,7 km/h (4 Bft) 98,25 %
03.05.2017 04:55 9,1 C 12,8 C 81 % 1015,1 hPa 0,0 l/m 19,3 km/h (3 Bft) O-NO 67 0 min 0,000 mm 0,0 UV-I 0 W/m 6,0 C 2,4 C 27,4 km/h (4 Bft) 99,12 %
03.05.2017 05:00 9,1 C 12,8 C 81 % 1015,1 hPa 0,0 l/m 17,7 km/h (3 Bft) O-NO 67 0 min 0,025 mm 0,0 UV-I 0 W/m 6,0 C 2,9 C 25,7 km/h (4 Bft) 97,37 %
03.05.2017 05:05 9,1 C 12,8 C 81 % 1015,0 hPa 0,0 l/m 16,1 km/h (3 Bft) O-NO 67 0 min 0,000 mm 0,0 UV-I 0 W/m 6,0 C 3,6 C 24,1 km/h (4 Bft) 100,00 %
03.05.2017 05:10 9,1 C 12,8 C 81 % 1015,0 hPa 0,0 l/m 17,7 km/h (3 Bft) O-NO 67 0 min 0,000 mm 0,0 UV-I 0 W/m 6,0 C 2,9 C 25,7 km/h (4 Bft) 97,37 %
03.05.2017 05:15 9,1 C 12,8 C 81 % 1015,0 hPa 0,0 l/m 17,7 km/h (3 Bft) O-NO 67 0 min 0,000 mm 0,0 UV-I 0 W/m 6,0 C 2,9 C 29,0 km/h (5 Bft) 95,61 %
03.05.2017 05:20 9,1 C 12,8 C 81 % 1015,0 hPa 0,0 l/m 19,3 km/h (3 Bft) O-NO 67 0 min 0,000 mm 0,0 UV-I 0 W/m 6,0 C 2,4 C 29,0 km/h (5 Bft) 100,00 %
03.05.2017 05:25 9,1 C 12,8 C 80 % 1014,8 hPa 0,0 l/m 19,3 km/h (3 Bft) O-NO 67 0 min 0,000 mm 0,0 UV-I 0 W/m 5,8 C 2,4 C 30,6 km/h (5 Bft) 95,61 %
03.05.2017 05:30 9,2 C 12,8 C 80 % 1014,8 hPa 0,0 l/m 19,3 km/h (3 Bft) O-NO 67 0 min 0,000 mm 0,0 UV-I 4 W/m 5,9 C 2,5 C 29,0 km/h (5 Bft) 94,74 %
03.05.2017 05:35 9,2 C 12,8 C 80 % 1014,8 hPa 0,0 l/m 17,7 km/h (3 Bft) O-NO 67 0 min 0,000 mm 0,0 UV-I 5 W/m 5,9 C 3,1 C 25,7 km/h (4 Bft) 95,61 %
03.05.2017 05:40 9,1 C 12,8 C 80 % 1014,8 hPa 0,0 l/m 19,3 km/h (3 Bft) O-NO 67 0 min 0,000 mm 0,0 UV-I 5 W/m 5,8 C 2,4 C 32,2 km/h (5 Bft) 97,37 %
03.05.2017 05:45 9,2 C 12,8 C 80 % 1014,8 hPa 0,0 l/m 17,7 km/h (3 Bft) O-NO 67 0 min 0,000 mm 0,0 UV-I 7 W/m 5,9 C 3,1 C 25,7 km/h (4 Bft) 95,61 %
03.05.2017 05:50 9,2 C 12,8 C 80 % 1014,9 hPa 0,0 l/m 19,3 km/h (3 Bft) O-NO 67 0 min 0,000 mm 0,0 UV-I 11 W/m 5,9 C 2,5 C 25,7 km/h (4 Bft) 97,37 %
03.05.2017 05:55 9,2 C 12,8 C 80 % 1014,8 hPa 0,0 l/m 19,3 km/h (3 Bft) O-NO 67 5 min 0,000 mm 0,0 UV-I 16 W/m 5,9 C 2,5 C 29,0 km/h (5 Bft) 97,37 %
03.05.2017 06:00 9,2 C 12,8 C 80 % 1014,8 hPa 0,0 l/m 20,9 km/h (4 Bft) O-NO 67 5 min 0,051 mm 0,0 UV-I 20 W/m 5,9 C 2,0 C 30,6 km/h (5 Bft) 97,37 %
03.05.2017 06:05 9,2 C 12,8 C 80 % 1014,8 hPa 0,0 l/m 17,7 km/h (3 Bft) O-NO 67 5 min 0,000 mm 0,0 UV-I 31 W/m 5,9 C 3,1 C 29,0 km/h (5 Bft) 96,49 %
03.05.2017 06:10 9,2 C 12,8 C 80 % 1014,9 hPa 0,0 l/m 17,7 km/h (3 Bft) O-NO 67 5 min 0,000 mm 0,0 UV-I 34 W/m 5,9 C 3,1 C 27,4 km/h (4 Bft) 97,37 %
03.05.2017 06:15 9,2 C 12,8 C 80 % 1014,9 hPa 0,0 l/m 17,7 km/h (3 Bft) O-NO 67 0 min 0,000 mm 0,0 UV-I 38 W/m 5,9 C 3,1 C 25,7 km/h (4 Bft) 95,61 %
03.05.2017 06:20 9,1 C 12,8 C 80 % 1014,9 hPa 0,0 l/m 16,1 km/h (3 Bft) O-NO 67 0 min 0,000 mm 0,0 UV-I 45 W/m 5,8 C 3,6 C 29,0 km/h (5 Bft) 95,61 %
03.05.2017 06:25 9,1 C 12,8 C 81 % 1015,0 hPa 0,0 l/m 17,7 km/h (3 Bft) O-NO 67 0 min 0,000 mm 0,0 UV-I 52 W/m 6,0 C 2,9 C 25,7 km/h (4 Bft) 93,86 %
03.05.2017 06:30 9,1 C 12,8 C 81 % 1015,0 hPa 0,0 l/m 19,3 km/h (3 Bft) O-NO 67 0 min 0,000 mm 0,0 UV-I 60 W/m 6,0 C 2,4 C 27,4 km/h (4 Bft) 93,86 %
03.05.2017 06:35 9,1 C 12,8 C 81 % 1015,0 hPa 0,0 l/m 16,1 km/h (3 Bft) O-NO 67 0 min 0,000 mm 0,0 UV-I 71 W/m 6,0 C 3,6 C 24,1 km/h (4 Bft) 97,37 %
03.05.2017 06:40 9,1 C 12,8 C 81 % 1015,0 hPa 0,0 l/m 16,1 km/h (3 Bft) O-NO 67 5 min 0,000 mm 0,0 UV-I 84 W/m 6,0 C 3,6 C 27,4 km/h (4 Bft) 93,86 %
03.05.2017 06:45 9,2 C 12,8 C 81 % 1015,0 hPa 0,0 l/m 17,7 km/h (3 Bft) O-NO 67 5 min 0,000 mm 0,0 UV-I 95 W/m 6,1 C 3,1 C 27,4 km/h (4 Bft) 95,61 %
03.05.2017 06:50 9,2 C 12,8 C 81 % 1015,0 hPa 0,0 l/m 16,1 km/h (3 Bft) O-NO 67 5 min 0,000 mm 0,0 UV-I 104 W/m 6,1 C 3,7 C 24,1 km/h (4 Bft) 92,11 %
03.05.2017 06:55 9,3 C 12,8 C 81 % 1015,0 hPa 0,0 l/m 19,3 km/h (3 Bft) O-NO 67 5 min 0,000 mm 0,0 UV-I 119 W/m 6,2 C 2,6 C 30,6 km/h (5 Bft) 93,86 %
03.05.2017 07:00 9,4 C 12,8 C 80 % 1015,0 hPa 0,0 l/m 20,9 km/h (4 Bft) O-NO 67 5 min 0,076 mm 0,0 UV-I 128 W/m 6,1 C 2,2 C 30,6 km/h (5 Bft) 91,23 %
03.05.2017 07:05 9,5 C 12,8 C 80 % 1014,9 hPa 0,0 l/m 19,3 km/h (3 Bft) O-NO 67 5 min 0,000 mm 0,0 UV-I 144 W/m 6,2 C 2,9 C 33,8 km/h (5 Bft) 92,98 %
03.05.2017 07:10 9,6 C 12,8 C 80 % 1014,9 hPa 0,0 l/m 22,5 km/h (4 Bft) O-NO 67 5 min 0,000 mm 0,0 UV-I 179 W/m 6,3 C 2,0 C 32,2 km/h (5 Bft) 93,86 %
03.05.2017 07:15 9,8 C 12,8 C 79 % 1015,0 hPa 0,0 l/m 22,5 km/h (4 Bft) O-NO 67 5 min 0,000 mm 0,0 UV-I 194 W/m 6,3 C 2,3 C 33,8 km/h (5 Bft) 88,60 %
03.05.2017 07:20 9,8 C 12,8 C 79 % 1015,0 hPa 0,0 l/m 20,9 km/h (4 Bft) O-NO 67 5 min 0,000 mm 0,0 UV-I 157 W/m 6,3 C 2,7 C 30,6 km/h (5 Bft) 92,98 %
03.05.2017 07:25 9,8 C 12,8 C 79 % 1014,9 hPa 0,0 l/m 17,7 km/h (3 Bft) O-NO 67 5 min 0,000 mm 0,0 UV-I 159 W/m 6,3 C 3,8 C 27,4 km/h (4 Bft) 85,96 %
03.05.2017 07:30 9,8 C 12,8 C 79 % 1014,9 hPa 0,0 l/m 16,1 km/h (3 Bft) O-NO 67 5 min 0,000 mm 0,0 UV-I 186 W/m 6,3 C 4,4 C 29,0 km/h (5 Bft) 87,72 %
03.05.2017 07:35 9,9 C 12,8 C 79 % 1015,0 hPa 0,0 l/m 17,7 km/h (3 Bft) O-NO 67 5 min 0,000 mm 0,0 UV-I 194 W/m 6,4 C 4,0 C 24,1 km/h (4 Bft) 92,11 %
03.05.2017 07:40 10,1 C 12,8 C 80 % 1015,0 hPa 0,0 l/m 17,7 km/h (3 Bft) O-NO 67 5 min 0,000 mm 0,0 UV-I 238 W/m 6,8 C 4,2 C 27,4 km/h (4 Bft) 93,86 %
03.05.2017 07:45 10,3 C 12,8 C 79 % 1015,0 hPa 0,0 l/m 14,5 km/h (3 Bft) O-NO 67 5 min 0,000 mm 0,0 UV-I 239 W/m 6,8 C 5,7 C 22,5 km/h (4 Bft) 88,60 %
03.05.2017 07:50 10,4 C 12,8 C 79 % 1015,0 hPa 0,0 l/m 17,7 km/h (3 Bft) O-NO 67 5 min 0,000 mm 0,0 UV-I 235 W/m 6,9 C 4,6 C 24,1 km/h (4 Bft) 97,37 %
03.05.2017 07:55 10,6 C 12,8 C 78 % 1015,0 hPa 0,0 l/m 17,7 km/h (3 Bft) O-NO 67 5 min 0,000 mm 0,4 UV-I 250 W/m 6,9 C 4,8 C 24,1 km/h (4 Bft) 97,37 %
03.05.2017 08:00 10,7 C 12,8 C 78 % 1015,1 hPa 0,0 l/m 12,9 km/h (3 Bft) O-NO 67 5 min 0,127 mm 0,5 UV-I 243 W/m 7,0 C 6,9 C 20,9 km/h (4 Bft) 92,98 %
03.05.2017 08:05 10,8 C 12,8 C 77 % 1015,0 hPa 0,0 l/m 16,1 km/h (3 Bft) O-NO 67 5 min 0,000 mm 0,5 UV-I 238 W/m 6,9 C 5,7 C 25,7 km/h (4 Bft) 92,98 %
03.05.2017 08:10 10,9 C 12,8 C 77 % 1015,0 hPa 0,0 l/m 16,1 km/h (3 Bft) O-NO 67 5 min 0,000 mm 0,5 UV-I 234 W/m 7,0 C 5,8 C 25,7 km/h (4 Bft) 94,74 %
03.05.2017 08:15 11,1 C 12,8 C 77 % 1015,0 hPa 0,0 l/m 14,5 km/h (3 Bft) O-NO 67 0 min 0,000 mm 0,6 UV-I 221 W/m 7,2 C 6,7 C 22,5 km/h (4 Bft) 92,98 %
03.05.2017 08:20 11,2 C 12,8 C 77 % 1015,0 hPa 0,0 l/m 12,9 km/h (3 Bft) O-NO 67 5 min 0,000 mm 0,6 UV-I 236 W/m 7,3 C 7,5 C 19,3 km/h (3 Bft) 95,61 %
03.05.2017 08:25 11,3 C 12,8 C 76 % 1014,9 hPa 0,0 l/m 17,7 km/h (3 Bft) O-NO 67 5 min 0,000 mm 0,6 UV-I 241 W/m 7,2 C 5,7 C 24,1 km/h (4 Bft) 96,49 %
03.05.2017 08:30 11,4 C 12,8 C 76 % 1015,0 hPa 0,0 l/m 14,5 km/h (3 Bft) O-NO 67 5 min 0,000 mm 0,7 UV-I 259 W/m 7,3 C 7,0 C 24,1 km/h (4 Bft) 100,00 %
03.05.2017 08:35 11,6 C 12,8 C 76 % 1015,0 hPa 0,0 l/m 12,9 km/h (3 Bft) O-NO 67 5 min 0,000 mm 0,8 UV-I 279 W/m 7,5 C 7,9 C 22,5 km/h (4 Bft) 98,25 %
03.05.2017 08:40 11,8 C 12,8 C 75 % 1014,9 hPa 0,0 l/m 16,1 km/h (3 Bft) O-NO 67 5 min 0,000 mm 0,8 UV-I 305 W/m 7,5 C 6,9 C 25,7 km/h (4 Bft) 99,12 %
03.05.2017 08:45 12,0 C 12,8 C 75 % 1015,0 hPa 0,0 l/m 14,5 km/h (3 Bft) O-NO 67 5 min 0,000 mm 0,9 UV-I 333 W/m 7,7 C 7,8 C 24,1 km/h (4 Bft) 97,37 %
03.05.2017 08:50 12,3 C 12,8 C 74 % 1014,9 hPa 0,0 l/m 16,1 km/h (3 Bft) O-NO 67 5 min 0,000 mm 1,0 UV-I 400 W/m 7,8 C 7,5 C 24,1 km/h (4 Bft) 100,00 %
03.05.2017 08:55 12,7 C 12,8 C 72 % 1014,9 hPa 0,0 l/m 16,1 km/h (3 Bft) O-NO 67 5 min 0,000 mm 1,0 UV-I 392 W/m 7,8 C 8,0 C 25,7 km/h (4 Bft) 99,12 %
03.05.2017 09:00 12,7 C 12,8 C 72 % 1014,9 hPa 0,0 l/m 17,7 km/h (3 Bft) O-NO 67 5 min 0,178 mm 1,1 UV-I 354 W/m 7,8 C 7,5 C 27,4 km/h (4 Bft) 92,98 %
03.05.2017 09:05 12,9 C 12,8 C 72 % 1014,9 hPa 0,0 l/m 14,5 km/h (3 Bft) O-NO 67 5 min 0,000 mm 1,2 UV-I 463 W/m 8,0 C 8,8 C 20,9 km/h (4 Bft) 92,98 %
03.05.2017 09:10 13,3 C 12,8 C 71 % 1015,0 hPa 0,0 l/m 16,1 km/h (3 Bft) O-NO 67 5 min 0,000 mm 1,4 UV-I 610 W/m 8,2 C 8,7 C 25,7 km/h (4 Bft) 94,74 %
03.05.2017 09:15 13,6 C 12,8 C 71 % 1014,9 hPa 0,0 l/m 12,9 km/h (3 Bft) O-NO 67 5 min 0,000 mm 1,4 UV-I 580 W/m 8,4 C 10,3 C 22,5 km/h (4 Bft) 96,49 %
03.05.2017 09:20 13,7 C 12,8 C 70 % 1014,9 hPa 0,0 l/m 14,5 km/h (3 Bft) O-NO 67 5 min 0,000 mm 1,5 UV-I 554 W/m 8,3 C 9,8 C 24,1 km/h (4 Bft) 92,11 %
03.05.2017 09:25 13,8 C 12,8 C 68 % 1014,9 hPa 0,0 l/m 12,9 km/h (3 Bft) O-NO 67 5 min 0,000 mm 1,5 UV-I 496 W/m 8,0 C 10,5 C 20,9 km/h (4 Bft) 91,23 %
03.05.2017 09:30 13,9 C 12,8 C 68 % 1015,0 hPa 0,0 l/m 14,5 km/h (3 Bft) O-NO 67 5 min 0,000 mm 1,6 UV-I 534 W/m 8,1 C 10,0 C 22,5 km/h (4 Bft) 94,74 %
03.05.2017 09:35 14,0 C 12,8 C 68 % 1015,0 hPa 0,0 l/m 12,9 km/h (3 Bft) O-NO 67 5 min 0,000 mm 1,7 UV-I 544 W/m 8,2 C 10,8 C 20,9 km/h (4 Bft) 94,74 %
03.05.2017 09:40 14,1 C 12,8 C 68 % 1015,0 hPa 0,0 l/m 14,5 km/h (3 Bft) NO 45 5 min 0,000 mm 1,7 UV-I 503 W/m 8,3 C 10,3 C 20,9 km/h (4 Bft) 83,33 %
03.05.2017 09:45 14,2 C 13,3 C 67 % 1015,0 hPa 0,0 l/m 14,5 km/h (3 Bft) NO 45 5 min 0,000 mm 2,0 UV-I 608 W/m 8,2 C 10,4 C 20,9 km/h (4 Bft) 89,47 %
03.05.2017 09:50 14,3 C 13,3 C 67 % 1015,0 hPa 0,0 l/m 16,1 km/h (3 Bft) O-NO 67 5 min 0,000 mm 2,2 UV-I 654 W/m 8,3 C 10,0 C 22,5 km/h (4 Bft) 94,74 %
03.05.2017 09:55 14,4 C 13,3 C 66 % 1015,1 hPa 0,0 l/m 16,1 km/h (3 Bft) O-NO 67 5 min 0,000 mm 2,4 UV-I 752 W/m 8,1 C 10,1 C 24,1 km/h (4 Bft) 94,74 %
03.05.2017 10:00 14,8 C 13,3 C 67 % 1015,1 hPa 0,0 l/m 16,1 km/h (3 Bft) NO 45 5 min 0,356 mm 2,6 UV-I 813 W/m 8,7 C 10,6 C 24,1 km/h (4 Bft) 97,37 %
03.05.2017 10:05 15,2 C 13,3 C 64 % 1015,1 hPa 0,0 l/m 17,7 km/h (3 Bft) NO 45 5 min 0,000 mm 2,8 UV-I 841 W/m 8,4 C 10,6 C 30,6 km/h (5 Bft) 92,11 %
03.05.2017 10:10 15,2 C 13,3 C 66 % 1015,1 hPa 0,0 l/m 16,1 km/h (3 Bft) O-NO 67 5 min 0,000 mm 2,7 UV-I 787 W/m 8,9 C 11,1 C 25,7 km/h (4 Bft) 94,74 %
03.05.2017 10:15 15,3 C 13,3 C 63 % 1015,1 hPa 0,0 l/m 16,1 km/h (3 Bft) O-NO 67 5 min 0,000 mm 2,8 UV-I 777 W/m 8,3 C 11,2 C 27,4 km/h (4 Bft) 95,61 %
03.05.2017 10:20 15,7 C 13,3 C 66 % 1015,1 hPa 0,0 l/m 14,5 km/h (3 Bft) NO 45 5 min 0,000 mm 3,0 UV-I 828 W/m 9,4 C 12,2 C 24,1 km/h (4 Bft) 95,61 %
03.05.2017 10:25 15,7 C 13,3 C 61 % 1015,1 hPa 0,0 l/m 17,7 km/h (3 Bft) O-NO 67 5 min 0,000 mm 3,1 UV-I 859 W/m 8,2 C 11,2 C 30,6 km/h (5 Bft) 94,74 %
03.05.2017 10:30 15,6 C 13,3 C 59 % 1015,2 hPa 0,0 l/m 19,3 km/h (3 Bft) O-NO 67 5 min 0,000 mm 3,0 UV-I 759 W/m 7,6 C 10,7 C 27,4 km/h (4 Bft) 97,37 %
03.05.2017 10:35 15,6 C 13,3 C 64 % 1015,2 hPa 0,0 l/m 14,5 km/h (3 Bft) O-NO 67 5 min 0,000 mm 2,7 UV-I 671 W/m 8,8 C 12,1 C 24,1 km/h (4 Bft) 97,37 %
03.05.2017 10:40 15,6 C 13,3 C 64 % 1015,1 hPa 0,0 l/m 12,9 km/h (3 Bft) O 90 5 min 0,000 mm 2,8 UV-I 647 W/m 8,8 C 12,6 C 22,5 km/h (4 Bft) 95,61 %
03.05.2017 10:45 15,7 C 13,3 C 65 % 1015,1 hPa 0,0 l/m 11,3 km/h (2 Bft) O-NO 67 5 min 0,000 mm 2,8 UV-I 659 W/m 9,1 C 13,3 C 17,7 km/h (3 Bft) 94,74 %
03.05.2017 10:50 15,8 C 13,3 C 62 % 1015,1 hPa 0,0 l/m 14,5 km/h (3 Bft) O-NO 67 5 min 0,000 mm 2,8 UV-I 638 W/m 8,5 C 12,3 C 22,5 km/h (4 Bft) 95,61 %
03.05.2017 10:55 15,8 C 13,3 C 61 % 1015,1 hPa 0,0 l/m 9,7 km/h (2 Bft) O-NO 67 5 min 0,000 mm 2,8 UV-I 616 W/m 8,3 C 14,1 C 17,7 km/h (3 Bft) 94,74 %
03.05.2017 11:00 16,1 C 13,3 C 63 % 1015,1 hPa 0,0 l/m 9,7 km/h (2 Bft) O-NO 67 5 min 0,457 mm 2,8 UV-I 634 W/m 9,1 C 14,5 C 16,1 km/h (3 Bft) 94,74 %
03.05.2017 11:05 16,1 C 13,3 C 60 % 1015,1 hPa 0,0 l/m 9,7 km/h (2 Bft) O-NO 67 5 min 0,000 mm 2,7 UV-I 586 W/m 8,3 C 14,5 C 17,7 km/h (3 Bft) 95,61 %
03.05.2017 11:10 16,2 C 13,3 C 60 % 1015,0 hPa 0,0 l/m 6,4 km/h (2 Bft) O-NO 67 5 min 0,000 mm 2,8 UV-I 589 W/m 8,4 C 16,2 C 17,7 km/h (3 Bft) 95,61 %
03.05.2017 11:15 16,6 C 13,3 C 63 % 1015,0 hPa 0,0 l/m 6,4 km/h (2 Bft) O-NO 67 5 min 0,000 mm 3,3 UV-I 721 W/m 9,5 C 16,6 C 19,3 km/h (3 Bft) 96,49 %
03.05.2017 11:20 16,8 C 13,3 C 59 % 1015,0 hPa 0,0 l/m 11,3 km/h (2 Bft) O-NO 67 5 min 0,000 mm 3,9 UV-I 919 W/m 8,7 C 14,6 C 19,3 km/h (3 Bft) 97,37 %
03.05.2017 11:25 17,1 C 13,3 C 60 % 1015,0 hPa 0,0 l/m 9,7 km/h (2 Bft) O-NO 67 5 min 0,000 mm 4,0 UV-I 894 W/m 9,3 C 15,6 C 17,7 km/h (3 Bft) 98,25 %
03.05.2017 11:30 17,1 C 13,9 C 60 % 1015,0 hPa 0,0 l/m 11,3 km/h (2 Bft) O-NO 67 5 min 0,000 mm 3,7 UV-I 796 W/m 9,3 C 14,9 C 20,9 km/h (4 Bft) 97,37 %
03.05.2017 11:35 17,2 C 13,3 C 60 % 1014,9 hPa 0,0 l/m 6,4 km/h (2 Bft) O-NO 67 5 min 0,000 mm 4,0 UV-I 848 W/m 9,4 C 17,2 C 14,5 km/h (3 Bft) 92,98 %
03.05.2017 11:40 17,3 C 13,3 C 59 % 1015,0 hPa 0,0 l/m 9,7 km/h (2 Bft) NO 45 5 min 0,000 mm 3,9 UV-I 833 W/m 9,2 C 15,8 C 19,3 km/h (3 Bft) 95,61 %
03.05.2017 11:45 17,7 C 13,3 C 59 % 1015,0 hPa 0,0 l/m 6,4 km/h (2 Bft) NO 45 5 min 0,000 mm 3,9 UV-I 777 W/m 9,6 C 17,7 C 14,5 km/h (3 Bft) 93,86 %
03.05.2017 11:50 17,6 C 13,3 C 57 % 1015,0 hPa 0,0 l/m 3,2 km/h (1 Bft) N-NO 22 5 min 0,000 mm 3,9 UV-I 754 W/m 9,0 C 17,6 C 8,0 km/h (2 Bft) 93,86 %
03.05.2017 11:55 17,3 C 13,3 C 55 % 1015,0 hPa 0,0 l/m 6,4 km/h (2 Bft) NO 45 5 min 0,000 mm 3,8 UV-I 755 W/m 8,2 C 17,3 C 17,7 km/h (3 Bft) 94,74 %
03.05.2017 12:00 17,4 C 13,3 C 56 % 1015,0 hPa 0,0 l/m 4,8 km/h (1 Bft) NO 45 5 min 0,457 mm 3,4 UV-I 623 W/m 8,5 C 17,4 C 9,7 km/h (2 Bft) 94,74 %
03.05.2017 12:05 17,2 C 13,9 C 56 % 1015,0 hPa 0,0 l/m 1,6 km/h (1 Bft) NO 45 5 min 0,000 mm 3,3 UV-I 590 W/m 8,3 C 17,2 C 6,4 km/h (2 Bft) 91,23 %
03.05.2017 12:10 17,3 C 13,9 C 64 % 1014,9 hPa 0,0 l/m 4,8 km/h (1 Bft) SW 225 5 min 0,000 mm 3,5 UV-I 625 W/m 10,4 C 17,3 C 9,7 km/h (2 Bft) 94,74 %
03.05.2017 12:15 17,2 C 13,9 C 66 % 1014,9 hPa 0,0 l/m 6,4 km/h (2 Bft) W-SW 247 5 min 0,000 mm 3,8 UV-I 693 W/m 10,8 C 17,2 C 14,5 km/h (3 Bft) 95,61 %
03.05.2017 12:20 17,3 C 13,9 C 66 % 1014,9 hPa 0,0 l/m 8,0 km/h (2 Bft) W-SW 247 5 min 0,000 mm 4,1 UV-I 794 W/m 10,9 C 16,5 C 16,1 km/h (3 Bft) 95,61 %
03.05.2017 12:25 17,4 C 13,9 C 67 % 1014,9 hPa 0,0 l/m 6,4 km/h (2 Bft) S-SW 202 5 min 0,000 mm 4,5 UV-I 866 W/m 11,2 C 17,4 C 12,9 km/h (3 Bft) 97,37 %
03.05.2017 12:30 17,5 C 13,9 C 62 % 1014,8 hPa 0,0 l/m 6,4 km/h (2 Bft) W-SW 247 5 min 0,000 mm 4,4 UV-I 859 W/m 10,1 C 17,5 C 14,5 km/h (3 Bft) 96,49 %
03.05.2017 12:35 17,4 C 13,9 C 60 % 1014,8 hPa 0,0 l/m 6,4 km/h (2 Bft) W-NW 292 5 min 0,000 mm 4,3 UV-I 818 W/m 9,6 C 17,4 C 17,7 km/h (3 Bft) 98,25 %
03.05.2017 12:40 17,6 C 13,9 C 60 % 1014,8 hPa 0,0 l/m 3,2 km/h (1 Bft) W 270 5 min 0,000 mm 4,0 UV-I 773 W/m 9,7 C 17,6 C 9,7 km/h (2 Bft) 99,12 %
03.05.2017 12:45 17,6 C 13,9 C 59 % 1014,8 hPa 0,0 l/m 3,2 km/h (1 Bft) W-NW 292 5 min 0,000 mm 4,0 UV-I 751 W/m 9,5 C 17,6 C 8,0 km/h (2 Bft) 97,37 %
03.05.2017 12:50 17,6 C 13,9 C 60 % 1014,7 hPa 0,0 l/m 1,6 km/h (1 Bft) W-NW 292 5 min 0,000 mm 3,5 UV-I 617 W/m 9,7 C 17,6 C 4,8 km/h (1 Bft) 98,25 %
03.05.2017 12:55 17,3 C 13,9 C 60 % 1014,6 hPa 0,0 l/m 0,0 km/h (0 Bft) N-NW 337 0 min 0,000 mm 2,7 UV-I 384 W/m 9,5 C 17,3 C 4,8 km/h (1 Bft) 98,25 %
03.05.2017 13:00 17,2 C 13,9 C 55 % 1014,5 hPa 0,0 l/m 1,6 km/h (1 Bft) N-NW 337 0 min 0,381 mm 2,6 UV-I 402 W/m 8,1 C 17,2 C 3,2 km/h (1 Bft) 98,25 %
03.05.2017 13:05 17,2 C 13,9 C 63 % 1014,4 hPa 0,0 l/m 1,6 km/h (1 Bft) NW 315 5 min 0,000 mm 2,8 UV-I 474 W/m 10,1 C 17,2 C 4,8 km/h (1 Bft) 98,25 %
03.05.2017 13:10 17,4 C 13,9 C 62 % 1014,5 hPa 0,0 l/m 3,2 km/h (1 Bft) SW 225 5 min 0,000 mm 3,0 UV-I 498 W/m 10,0 C 17,4 C 8,0 km/h (2 Bft) 99,12 %
03.05.2017 13:15 17,6 C 13,9 C 61 % 1014,5 hPa 0,0 l/m 4,8 km/h (1 Bft) W-SW 247 0 min 0,000 mm 2,8 UV-I 453 W/m 10,0 C 17,6 C 12,9 km/h (3 Bft) 99,12 %
03.05.2017 13:20 17,6 C 13,9 C 64 % 1014,4 hPa 0,0 l/m 8,0 km/h (2 Bft) SW 225 0 min 0,000 mm 2,8 UV-I 457 W/m 10,7 C 16,8 C 14,5 km/h (3 Bft) 98,25 %
03.05.2017 13:25 17,3 C 13,9 C 66 % 1014,4 hPa 0,0 l/m 8,0 km/h (2 Bft) S-SW 202 5 min 0,000 mm 2,8 UV-I 490 W/m 10,9 C 16,5 C 14,5 km/h (3 Bft) 99,12 %
03.05.2017 13:30 17,1 C 13,9 C 64 % 1014,4 hPa 0,0 l/m 6,4 km/h (2 Bft) S-SO 157 5 min 0,000 mm 2,9 UV-I 520 W/m 10,2 C 17,1 C 12,9 km/h (3 Bft) 93,86 %
03.05.2017 13:35 17,1 C 13,9 C 65 % 1014,4 hPa 0,0 l/m 4,8 km/h (1 Bft) S-SW 202 5 min 0,000 mm 2,9 UV-I 522 W/m 10,5 C 17,1 C 11,3 km/h (2 Bft) 95,61 %
03.05.2017 13:40 17,3 C 13,9 C 65 % 1014,3 hPa 0,0 l/m 6,4 km/h (2 Bft) W-SW 247 5 min 0,000 mm 3,0 UV-I 558 W/m 10,7 C 17,3 C 12,9 km/h (3 Bft) 92,11 %
03.05.2017 13:45 17,4 C 13,9 C 64 % 1014,3 hPa 0,0 l/m 6,4 km/h (2 Bft) W-SW 247 5 min 0,000 mm 3,1 UV-I 583 W/m 10,5 C 17,4 C 12,9 km/h (3 Bft) 95,61 %
03.05.2017 13:50 17,6 C 14,4 C 65 % 1014,3 hPa 0,0 l/m 6,4 km/h (2 Bft) S-SW 202 5 min 0,000 mm 3,0 UV-I 557 W/m 10,9 C 17,6 C 14,5 km/h (3 Bft) 95,61 %
03.05.2017 13:55 17,6 C 14,4 C 65 % 1014,3 hPa 0,0 l/m 8,0 km/h (2 Bft) SW 225 5 min 0,000 mm 2,6 UV-I 476 W/m 10,9 C 16,8 C 14,5 km/h (3 Bft) 97,37 %
03.05.2017 14:00 17,3 C 14,4 C 63 % 1014,2 hPa 0,0 l/m 6,4 km/h (2 Bft) SW 225 0 min 0,305 mm 2,4 UV-I 435 W/m 10,2 C 17,3 C 12,9 km/h (3 Bft) 97,37 %
03.05.2017 14:05 17,3 C 14,4 C 65 % 1014,2 hPa 0,0 l/m 9,7 km/h (2 Bft) SW 225 0 min 0,000 mm 2,1 UV-I 395 W/m 10,7 C 15,8 C 16,1 km/h (3 Bft) 99,12 %
03.05.2017 14:10 17,2 C 14,4 C 65 % 1014,1 hPa 0,0 l/m 6,4 km/h (2 Bft) SW 225 0 min 0,000 mm 2,0 UV-I 373 W/m 10,6 C 17,2 C 12,9 km/h (3 Bft) 98,25 %
03.05.2017 14:15 17,1 C 14,4 C 64 % 1014,1 hPa 0,0 l/m 6,4 km/h (2 Bft) S-SW 202 0 min 0,000 mm 1,9 UV-I 357 W/m 10,2 C 17,1 C 9,7 km/h (2 Bft) 100,00 %
03.05.2017 14:20 17,1 C 14,4 C 67 % 1014,1 hPa 0,0 l/m 4,8 km/h (1 Bft) W-SW 247 0 min 0,000 mm 1,8 UV-I 360 W/m 10,9 C 17,1 C 12,9 km/h (3 Bft) 99,12 %
03.05.2017 14:25 17,2 C 14,4 C 67 % 1014,1 hPa 0,0 l/m 8,0 km/h (2 Bft) W-SW 247 0 min 0,000 mm 2,0 UV-I 395 W/m 11,0 C 16,4 C 12,9 km/h (3 Bft) 100,00 %
03.05.2017 14:30 17,2 C 14,4 C 66 % 1014,2 hPa 0,0 l/m 11,3 km/h (2 Bft) S-SW 202 0 min 0,000 mm 2,1 UV-I 423 W/m 10,8 C 15,1 C 17,7 km/h (3 Bft) 99,12 %
03.05.2017 14:35 17,1 C 14,4 C 68 % 1014,3 hPa 0,0 l/m 9,7 km/h (2 Bft) SW 225 5 min 0,000 mm 2,2 UV-I 444 W/m 11,1 C 15,6 C 17,7 km/h (3 Bft) 99,12 %
03.05.2017 14:40 16,8 C 14,4 C 65 % 1014,3 hPa 0,0 l/m 4,8 km/h (1 Bft) SW 225 5 min 0,000 mm 2,2 UV-I 458 W/m 10,2 C 16,8 C 11,3 km/h (2 Bft) 99,12 %
03.05.2017 14:45 16,7 C 14,4 C 65 % 1014,3 hPa 0,0 l/m 4,8 km/h (1 Bft) W-SW 247 5 min 0,000 mm 2,3 UV-I 469 W/m 10,1 C 16,7 C 8,0 km/h (2 Bft) 100,00 %
03.05.2017 14:50 16,8 C 14,4 C 66 % 1014,3 hPa 0,0 l/m 6,4 km/h (2 Bft) S-SW 202 5 min 0,000 mm 2,2 UV-I 444 W/m 10,4 C 16,8 C 11,3 km/h (2 Bft) 98,25 %
03.05.2017 14:55 16,8 C 14,4 C 65 % 1014,2 hPa 0,0 l/m 4,8 km/h (1 Bft) S-SW 202 5 min 0,000 mm 2,1 UV-I 421 W/m 10,2 C 16,8 C 8,0 km/h (2 Bft) 96,49 %
03.05.2017 15:00 16,8 C 14,4 C 66 % 1014,1 hPa 0,0 l/m 6,4 km/h (2 Bft) SW 225 0 min 0,254 mm 2,0 UV-I 392 W/m 10,4 C 16,8 C 11,3 km/h (2 Bft) 98,25 %
03.05.2017 15:05 16,9 C 14,4 C 66 % 1014,1 hPa 0,0 l/m 6,4 km/h (2 Bft) W-SW 247 5 min 0,000 mm 2,0 UV-I 413 W/m 10,5 C 16,9 C 11,3 km/h (2 Bft) 97,37 %
03.05.2017 15:10 16,9 C 14,4 C 67 % 1014,0 hPa 0,0 l/m 3,2 km/h (1 Bft) SW 225 5 min 0,000 mm 2,0 UV-I 432 W/m 10,7 C 16,9 C 8,0 km/h (2 Bft) 100,00 %
03.05.2017 15:15 16,9 C 14,4 C 65 % 1013,9 hPa 0,0 l/m 3,2 km/h (1 Bft) W-SW 247 5 min 0,000 mm 2,1 UV-I 434 W/m 10,3 C 16,9 C 6,4 km/h (2 Bft) 98,25 %
03.05.2017 15:20 17,1 C 14,4 C 64 % 1013,8 hPa 0,0 l/m 3,2 km/h (1 Bft) S-SW 202 5 min 0,000 mm 2,1 UV-I 452 W/m 10,2 C 17,1 C 6,4 km/h (2 Bft) 99,12 %
03.05.2017 15:25 17,3 C 14,4 C 66 % 1013,8 hPa 0,0 l/m 3,2 km/h (1 Bft) W-SW 247 5 min 0,000 mm 2,2 UV-I 502 W/m 10,9 C 17,3 C 4,8 km/h (1 Bft) 97,37 %
03.05.2017 15:30 17,7 C 14,4 C 65 % 1013,9 hPa 0,0 l/m 4,8 km/h (1 Bft) O-NO 67 5 min 0,000 mm 2,1 UV-I 483 W/m 11,0 C 17,7 C 11,3 km/h (2 Bft) 97,37 %
03.05.2017 15:35 17,6 C 14,4 C 61 % 1013,7 hPa 0,0 l/m 11,3 km/h (2 Bft) O 90 5 min 0,000 mm 2,0 UV-I 419 W/m 10,0 C 15,5 C 20,9 km/h (4 Bft) 97,37 %
03.05.2017 15:40 17,6 C 14,4 C 61 % 1013,8 hPa 0,0 l/m 9,7 km/h (2 Bft) O-SO 112 5 min 0,000 mm 1,9 UV-I 423 W/m 10,0 C 16,1 C 22,5 km/h (4 Bft) 96,49 %
03.05.2017 15:45 17,4 C 14,4 C 60 % 1013,7 hPa 0,0 l/m 12,9 km/h (3 Bft) O 90 5 min 0,000 mm 1,8 UV-I 409 W/m 9,6 C 14,7 C 20,9 km/h (4 Bft) 97,37 %
03.05.2017 15:50 17,5 C 14,4 C 63 % 1013,6 hPa 0,0 l/m 8,0 km/h (2 Bft) O 90 5 min 0,000 mm 1,9 UV-I 446 W/m 10,4 C 16,7 C 12,9 km/h (3 Bft) 96,49 %
03.05.2017 15:55 17,6 C 14,4 C 61 % 1013,7 hPa 0,0 l/m 12,9 km/h (3 Bft) O-NO 67 5 min 0,000 mm 2,1 UV-I 543 W/m 10,0 C 15,0 C 24,1 km/h (4 Bft) 96,49 %
03.05.2017 16:00 17,7 C 14,4 C 64 % 1013,6 hPa 0,0 l/m 12,9 km/h (3 Bft) O-NO 67 5 min 0,279 mm 2,0 UV-I 527 W/m 10,8 C 15,1 C 22,5 km/h (4 Bft) 100,00 %
03.05.2017 16:05 17,3 C 14,4 C 63 % 1013,7 hPa 0,0 l/m 16,1 km/h (3 Bft) O-NO 67 5 min 0,000 mm 1,7 UV-I 394 W/m 10,2 C 13,7 C 22,5 km/h (4 Bft) 99,12 %
03.05.2017 16:10 17,1 C 14,4 C 62 % 1013,7 hPa 0,0 l/m 14,5 km/h (3 Bft) O-NO 67 0 min 0,000 mm 1,4 UV-I 308 W/m 9,8 C 13,9 C 24,1 km/h (4 Bft) 97,37 %
03.05.2017 16:15 16,7 C 14,4 C 62 % 1013,6 hPa 0,0 l/m 17,7 km/h (3 Bft) O-NO 67 0 min 0,000 mm 1,3 UV-I 298 W/m 9,4 C 12,5 C 22,5 km/h (4 Bft) 98,25 %
03.05.2017 16:20 16,7 C 14,4 C 63 % 1013,7 hPa 0,0 l/m 14,5 km/h (3 Bft) O-NO 67 5 min 0,000 mm 1,5 UV-I 395 W/m 9,6 C 13,4 C 20,9 km/h (4 Bft) 97,37 %
03.05.2017 16:25 16,8 C 14,4 C 64 % 1013,7 hPa 0,0 l/m 12,9 km/h (3 Bft) O-NO 67 5 min 0,000 mm 1,7 UV-I 540 W/m 10,0 C 14,0 C 19,3 km/h (3 Bft) 98,25 %
03.05.2017 16:30 17,1 C 14,4 C 61 % 1013,6 hPa 0,0 l/m 14,5 km/h (3 Bft) O-NO 67 5 min 0,000 mm 1,8 UV-I 566 W/m 9,5 C 13,9 C 20,9 km/h (4 Bft) 97,37 %
03.05.2017 16:35 17,1 C 14,4 C 60 % 1013,6 hPa 0,0 l/m 12,9 km/h (3 Bft) O 90 5 min 0,000 mm 1,5 UV-I 449 W/m 9,3 C 14,4 C 20,9 km/h (4 Bft) 98,25 %
03.05.2017 16:40 17,1 C 14,4 C 62 % 1013,6 hPa 0,0 l/m 11,3 km/h (2 Bft) O 90 5 min 0,000 mm 1,5 UV-I 454 W/m 9,8 C 14,9 C 19,3 km/h (3 Bft) 100,00 %
03.05.2017 16:45 17,0 C 14,4 C 60 % 1013,6 hPa 0,0 l/m 12,9 km/h (3 Bft) O-NO 67 5 min 0,000 mm 1,4 UV-I 402 W/m 9,2 C 14,3 C 19,3 km/h (3 Bft) 100,00 %
03.05.2017 16:50 16,7 C 14,4 C 60 % 1013,6 hPa 0,0 l/m 11,3 km/h (2 Bft) O-NO 67 0 min 0,000 mm 1,2 UV-I 273 W/m 8,9 C 14,5 C 17,7 km/h (3 Bft) 100,00 %
03.05.2017 16:55 16,7 C 14,4 C 60 % 1013,5 hPa 0,0 l/m 9,7 km/h (2 Bft) O-NO 67 0 min 0,000 mm 1,0 UV-I 253 W/m 8,9 C 15,1 C 17,7 km/h (3 Bft) 100,00 %
03.05.2017 17:00 16,7 C 14,4 C 59 % 1013,5 hPa 0,0 l/m 12,9 km/h (3 Bft) O-NO 67 5 min 0,279 mm 1,0 UV-I 328 W/m 8,6 C 13,9 C 19,3 km/h (3 Bft) 100,00 %
03.05.2017 17:05 16,8 C 14,4 C 61 % 1013,5 hPa 0,0 l/m 11,3 km/h (2 Bft) O-NO 67 5 min 0,000 mm 1,2 UV-I 436 W/m 9,2 C 14,6 C 17,7 km/h (3 Bft) 98,25 %
03.05.2017 17:10 17,1 C 14,4 C 59 % 1013,4 hPa 0,0 l/m 11,3 km/h (2 Bft) O-NO 67 5 min 0,000 mm 1,1 UV-I 442 W/m 9,0 C 14,9 C 19,3 km/h (3 Bft) 100,00 %
03.05.2017 17:14 17,2 C 14,4 C 59 % 1013,4 hPa 0,0 l/m 12,4 km/h (3 Bft) O-NO 61 4 min 0,000 mm 1,1 UV-I 449 W/m 9,1 C 14,7 C 17,7 km/h (3 Bft) 100,00 %
03.05.2017 17:15 17,2 C 14,4 C 60 % 1013,4 hPa 0,0 l/m 11,3 km/h (2 Bft) O-NO 67 1 min 0,000 mm 1,1 UV-I 448 W/m 9,4 C 15,1 C 19,3 km/h (3 Bft) 87,72 %
03.05.2017 17:20 17,3 C 14,4 C 59 % 1013,3 hPa 0,0 l/m 12,9 km/h (3 Bft) NO 45 5 min 0,000 mm 1,1 UV-I 431 W/m 9,2 C 14,6 C 19,3 km/h (3 Bft) 95,61 %
03.05.2017 17:24 17,2 C 14,4 C 62 % 1013,4 hPa 0,0 l/m 16,4 km/h (3 Bft) NO 46 4 min 0,000 mm 1,0 UV-I 445 W/m 9,9 C 13,5 C 22,5 km/h (4 Bft) 97,88 %
03.05.2017 17:26 17,3 C 14,4 C 61 % 1013,3 hPa 0,0 l/m 14,7 km/h (3 Bft) O-NO 71 2 min 0,000 mm 1,0 UV-I 414 W/m 9,7 C 14,1 C 24,1 km/h (4 Bft) 100,00 %
03.05.2017 17:28 17,2 C 14,4 C 62 % 1013,3 hPa 0,0 l/m 13,8 km/h (3 Bft) O-NO 71 2 min 0,000 mm 0,9 UV-I 375 W/m 9,9 C 14,2 C 19,3 km/h (3 Bft) 100,00 %
03.05.2017 17:30 17,2 C 14,4 C 62 % 1013,3 hPa 0,0 l/m 12,1 km/h (2 Bft) O-NO 63 2 min 0,000 mm 1,0 UV-I 449 W/m 9,9 C 14,8 C 22,5 km/h (4 Bft) 97,87 %
03.05.2017 17:32 17,2 C 14,4 C 62 % 1013,3 hPa 0,0 l/m 12,3 km/h (3 Bft) O-NO 60 2 min 0,000 mm 1,0 UV-I 468 W/m 9,9 C 14,7 C 20,9 km/h (4 Bft) 100,00 %
03.05.2017 17:34 17,2 C 14,4 C 61 % 1013,4 hPa 0,0 l/m 15,6 km/h (3 Bft) O-NO 70 2 min 0,000 mm 1,0 UV-I 464 W/m 9,6 C 13,7 C 22,5 km/h (4 Bft) 90,91 %
03.05.2017 17:36 17,1 C 14,4 C 59 % 1013,4 hPa 0,0 l/m 13,7 km/h (3 Bft) O-NO 70 2 min 0,000 mm 0,9 UV-I 333 W/m 9,0 C 14,1 C 22,5 km/h (4 Bft) 100,00 %
03.05.2017 17:38 17,0 C 14,4 C 62 % 1013,4 hPa 0,0 l/m 15,5 km/h (3 Bft) O-NO 74 2 min 0,000 mm 0,9 UV-I 393 W/m 9,7 C 13,5 C 24,1 km/h (4 Bft) 98,00 %
03.05.2017 17:40 16,9 C 14,4 C 63 % 1013,3 hPa 0,0 l/m 16,2 km/h (3 Bft) O-NO 64 2 min 0,000 mm 0,9 UV-I 382 W/m 9,8 C 13,2 C 22,5 km/h (4 Bft) 97,92 %
03.05.2017 17:45 16,8 C 14,4 C 66 % 1013,3 hPa 0,0 l/m 14,5 km/h (3 Bft) O-NO 67 5 min 0,000 mm 0,8 UV-I 320 W/m 10,4 C 13,5 C 20,9 km/h (4 Bft) 93,86 %
03.05.2017 17:50 17,0 C 15,0 C 65 % 1013,2 hPa 0,0 l/m 12,5 km/h (3 Bft) NO 55 5 min 0,000 mm 0,8 UV-I 414 W/m 10,4 C 14,4 C 20,9 km/h (4 Bft) 99,55 %
03.05.2017 17:52 17,0 C 15,0 C 63 % 1013,2 hPa 0,0 l/m 16,3 km/h (3 Bft) O-NO 60 2 min 0,000 mm 0,8 UV-I 425 W/m 9,9 C 13,2 C 19,3 km/h (3 Bft) 98,18 %
03.05.2017 17:54 16,9 C 15,0 C 64 % 1013,2 hPa 0,0 l/m 17,1 km/h (3 Bft) O-NO 78 2 min 0,000 mm 0,7 UV-I 432 W/m 10,0 C 12,9 C 22,5 km/h (4 Bft) 94,00 %
03.05.2017 17:56 16,8 C 15,0 C 63 % 1013,2 hPa 0,0 l/m 20,4 km/h (4 Bft) O-NO 75 2 min 0,000 mm 0,7 UV-I 421 W/m 9,7 C 12,0 C 24,1 km/h (4 Bft) 100,00 %
03.05.2017 17:58 16,7 C 15,0 C 64 % 1013,2 hPa 0,0 l/m 17,3 km/h (3 Bft) O-NO 72 2 min 0,000 mm 0,7 UV-I 411 W/m 9,9 C 12,6 C 22,5 km/h (4 Bft) 100,00 %
03.05.2017 18:00 16,7 C 15,0 C 64 % 1013,2 hPa 0,0 l/m 17,5 km/h (3 Bft) O-NO 76 2 min 0,282 mm 0,7 UV-I 397 W/m 9,9 C 12,6 C 20,9 km/h (4 Bft) 97,56 %
03.05.2017 18:02 16,6 C 15,0 C 65 % 1013,2 hPa 0,0 l/m 16,3 km/h (3 Bft) O 82 2 min 0,000 mm 0,7 UV-I 384 W/m 10,0 C 12,8 C 24,1 km/h (4 Bft) 98,21 %
03.05.2017 18:04 16,6 C 15,0 C 65 % 1013,2 hPa 0,0 l/m 16,4 km/h (3 Bft) O-NO 63 2 min 0,000 mm 0,6 UV-I 369 W/m 10,0 C 12,7 C 22,5 km/h (4 Bft) 97,73 %
03.05.2017 18:06 16,6 C 15,0 C 65 % 1013,2 hPa 0,0 l/m 18,7 km/h (3 Bft) O-NO 68 2 min 0,000 mm 0,6 UV-I 343 W/m 10,0 C 12,1 C 27,4 km/h (4 Bft) 96,23 %
03.05.2017 18:08 16,5 C 15,0 C 65 % 1013,1 hPa 0,0 l/m 19,7 km/h (3 Bft) O-NO 59 2 min 0,000 mm 0,6 UV-I 317 W/m 9,9 C 11,8 C 25,7 km/h (4 Bft) 89,36 %
03.05.2017 18:10 16,4 C 15,0 C 65 % 1013,1 hPa 0,0 l/m 19,6 km/h (3 Bft) O-NO 61 2 min 0,000 mm 0,6 UV-I 329 W/m 9,8 C 11,6 C 25,7 km/h (4 Bft) 97,37 %
03.05.2017 18:12 16,4 C 15,0 C 66 % 1013,0 hPa 0,0 l/m 17,6 km/h (3 Bft) O-NO 63 2 min 0,000 mm 0,5 UV-I 305 W/m 10,0 C 12,2 C 24,1 km/h (4 Bft) 98,15 %
03.05.2017 18:14 16,4 C 15,0 C 66 % 1013,0 hPa 0,0 l/m 17,6 km/h (3 Bft) O-NO 69 2 min 0,000 mm 0,5 UV-I 237 W/m 10,0 C 12,2 C 24,1 km/h (4 Bft) 97,73 %
03.05.2017 18:16 16,3 C 15,0 C 66 % 1013,0 hPa 0,0 l/m 15,8 km/h (3 Bft) O-NO 71 2 min 0,000 mm 0,5 UV-I 268 W/m 9,9 C 12,5 C 25,7 km/h (4 Bft) 92,68 %
03.05.2017 18:18 16,3 C 15,0 C 65 % 1013,0 hPa 0,0 l/m 18,3 km/h (3 Bft) O-NO 58 2 min 0,000 mm 0,5 UV-I 281 W/m 9,7 C 11,8 C 22,5 km/h (4 Bft) 96,00 %
03.05.2017 18:20 16,3 C 15,0 C 67 % 1013,0 hPa 0,0 l/m 15,9 km/h (3 Bft) O-NO 78 2 min 0,000 mm 0,5 UV-I 269 W/m 10,2 C 12,5 C 22,5 km/h (4 Bft) 96,23 %
03.05.2017 18:22 16,3 C 15,0 C 67 % 1013,1 hPa 0,0 l/m 18,9 km/h (3 Bft) O-NO 74 2 min 0,000 mm 0,1 UV-I 263 W/m 10,2 C 11,7 C 24,1 km/h (4 Bft) 92,11 %
03.05.2017 18:24 16,3 C 15,0 C 68 % 1013,0 hPa 0,0 l/m 18,6 km/h (3 Bft) O-NO 67 2 min 0,000 mm 0,0 UV-I 254 W/m 10,4 C 11,8 C 25,7 km/h (4 Bft) 92,86 %
03.05.2017 18:26 16,2 C 15,0 C 67 % 1013,0 hPa 0,0 l/m 16,1 km/h (3 Bft) SO 124 2 min 0,000 mm 0,0 UV-I 247 W/m 10,1 C 12,3 C 20,9 km/h (4 Bft) 92,11 %
03.05.2017 18:28 16,2 C 15,0 C 67 % 1013,0 hPa 0,0 l/m 15,7 km/h (3 Bft) O-NO 77 2 min 0,000 mm 0,0 UV-I 241 W/m 10,1 C 12,4 C 25,7 km/h (4 Bft) 94,34 %
03.05.2017 18:30 16,1 C 15,0 C 67 % 1013,1 hPa 0,0 l/m 16,1 km/h (3 Bft) O-NO 68 2 min 0,000 mm 0,0 UV-I 234 W/m 10,0 C 12,2 C 19,3 km/h (3 Bft) 100,00 %
03.05.2017 18:32 16,1 C 15,0 C 67 % 1013,1 hPa 0,0 l/m 14,6 km/h (3 Bft) O-NO 76 2 min 0,000 mm 0,0 UV-I 225 W/m 10,0 C 12,6 C 20,9 km/h (4 Bft) 94,55 %
03.05.2017 18:34 16,1 C 15,0 C 67 % 1013,1 hPa 0,0 l/m 15,8 km/h (3 Bft) O-NO 69 2 min 0,000 mm 0,0 UV-I 219 W/m 10,0 C 12,3 C 20,9 km/h (4 Bft) 95,45 %
03.05.2017 18:36 16,1 C 15,0 C 67 % 1013,1 hPa 0,0 l/m 16,4 km/h (3 Bft) NO 56 2 min 0,000 mm 0,0 UV-I 212 W/m 10,0 C 12,1 C 22,5 km/h (4 Bft) 97,78 %
03.05.2017 18:38 16,1 C 15,0 C 67 % 1013,1 hPa 0,0 l/m 13,8 km/h (3 Bft) O-NO 77 2 min 0,000 mm 0,0 UV-I 206 W/m 10,0 C 12,9 C 17,7 km/h (3 Bft) 96,00 %
03.05.2017 18:40 16,0 C 15,0 C 67 % 1013,1 hPa 0,0 l/m 17,4 km/h (3 Bft) O-NO 69 2 min 0,000 mm 0,0 UV-I 200 W/m 9,9 C 11,7 C 25,7 km/h (4 Bft) 98,00 %
03.05.2017 18:42 16,0 C 15,0 C 67 % 1013,1 hPa 0,0 l/m 17,9 km/h (3 Bft) O-NO 65 2 min 0,000 mm 0,0 UV-I 193 W/m 9,9 C 11,6 C 22,5 km/h (4 Bft) 92,11 %
03.05.2017 18:44 15,9 C 15,0 C 67 % 1013,1 hPa 0,0 l/m 15,4 km/h (3 Bft) O-NO 62 2 min 0,000 mm 0,0 UV-I 186 W/m 9,8 C 12,2 C 20,9 km/h (4 Bft) 100,00 %
03.05.2017 18:46 15,9 C 15,0 C 67 % 1013,1 hPa 0,0 l/m 15,7 km/h (3 Bft) O-NO 66 2 min 0,000 mm 0,0 UV-I 179 W/m 9,8 C 12,1 C 20,9 km/h (4 Bft) 92,68 %
03.05.2017 18:48 15,8 C 15,0 C 68 % 1013,1 hPa 0,0 l/m 11,5 km/h (2 Bft) NO 54 2 min 0,000 mm 0,0 UV-I 173 W/m 9,9 C 13,4 C 17,7 km/h (3 Bft) 92,86 %
03.05.2017 18:50 15,8 C 15,0 C 68 % 1013,1 hPa 0,0 l/m 14,7 km/h (3 Bft) O-NO 72 2 min 0,000 mm 0,0 UV-I 168 W/m 9,9 C 12,3 C 19,3 km/h (3 Bft) 94,74 %
03.05.2017 18:52 15,8 C 15,0 C 68 % 1013,1 hPa 0,0 l/m 16,2 km/h (3 Bft) O-NO 70 2 min 0,000 mm 0,0 UV-I 162 W/m 9,9 C 11,8 C 20,9 km/h (4 Bft) 92,00 %
03.05.2017 18:54 15,8 C 15,0 C 67 % 1013,1 hPa 0,0 l/m 14,6 km/h (3 Bft) O-NO 69 2 min 0,000 mm 0,0 UV-I 157 W/m 9,7 C 12,3 C 19,3 km/h (3 Bft) 94,00 %
03.05.2017 18:56 15,8 C 15,0 C 67 % 1013,1 hPa 0,0 l/m 11,4 km/h (2 Bft) O-NO 69 2 min 0,000 mm 0,0 UV-I 150 W/m 9,7 C 13,4 C 17,7 km/h (3 Bft) 94,29 %
03.05.2017 18:58 15,8 C 15,0 C 68 % 1013,1 hPa 0,0 l/m 16,1 km/h (3 Bft) O 88 2 min 0,000 mm 0,0 UV-I 145 W/m 9,9 C 11,8 C 24,1 km/h (4 Bft) 92,45 %
03.05.2017 19:00 15,7 C 15,0 C 66 % 1013,1 hPa 0,0 l/m 20,7 km/h (4 Bft) NO 36 2 min 0,203 mm 0,0 UV-I 143 W/m 9,4 C 10,5 C 27,4 km/h (4 Bft) 94,64 %
03.05.2017 19:02 15,7 C 15,0 C 66 % 1013,1 hPa 0,0 l/m 16,6 km/h (3 Bft) O-NO 65 2 min 0,000 mm 0,0 UV-I 138 W/m 9,4 C 11,6 C 25,7 km/h (4 Bft) 92,59 %
03.05.2017 19:04 15,7 C 15,0 C 67 % 1013,1 hPa 0,0 l/m 15,3 km/h (3 Bft) NO 55 2 min 0,000 mm 0,0 UV-I 134 W/m 9,6 C 11,9 C 20,9 km/h (4 Bft) 96,15 %
03.05.2017 19:06 15,6 C 15,0 C 67 % 1013,1 hPa 0,0 l/m 15,4 km/h (3 Bft) O-NO 67 2 min 0,000 mm 0,0 UV-I 129 W/m 9,5 C 11,8 C 22,5 km/h (4 Bft) 91,07 %
03.05.2017 19:08 15,6 C 15,0 C 68 % 1013,1 hPa 0,0 l/m 16,0 km/h (3 Bft) NO 54 2 min 0,000 mm 0,0 UV-I 124 W/m 9,7 C 11,6 C 19,3 km/h (3 Bft) 91,49 %
03.05.2017 19:10 15,4 C 15,0 C 68 % 1013,1 hPa 0,0 l/m 17,1 km/h (3 Bft) O-NO 60 2 min 0,000 mm 0,0 UV-I 120 W/m 9,5 C 11,0 C 24,1 km/h (4 Bft) 94,44 %
03.05.2017 19:12 15,4 C 15,0 C 68 % 1013,1 hPa 0,0 l/m 14,8 km/h (3 Bft) O-NO 62 2 min 0,000 mm 0,0 UV-I 117 W/m 9,5 C 11,7 C 20,9 km/h (4 Bft) 91,49 %
03.05.2017 19:14 15,3 C 15,0 C 69 % 1013,1 hPa 0,0 l/m 16,8 km/h (3 Bft) O-NO 60 2 min 0,000 mm 0,0 UV-I 115 W/m 9,6 C 11,0 C 22,5 km/h (4 Bft) 89,66 %
03.05.2017 19:16 15,3 C 15,0 C 69 % 1013,1 hPa 0,0 l/m 14,5 km/h (3 Bft) O-NO 61 2 min 0,000 mm 0,0 UV-I 107 W/m 9,6 C 11,7 C 20,9 km/h (4 Bft) 92,86 %
03.05.2017 19:18 15,2 C 15,0 C 69 % 1013,1 hPa 0,0 l/m 11,9 km/h (2 Bft) NO 53 0 min 0,000 mm 0,0 UV-I 81 W/m 9,6 C 12,5 C 24,1 km/h (4 Bft) 95,45 %
03.05.2017 19:20 15,1 C 15,0 C 69 % 1013,1 hPa 0,0 l/m 14,1 km/h (3 Bft) O-NO 63 0 min 0,000 mm 0,0 UV-I 63 W/m 9,5 C 11,6 C 24,1 km/h (4 Bft) 94,64 %
03.05.2017 19:22 14,9 C 15,0 C 69 % 1013,1 hPa 0,0 l/m 16,3 km/h (3 Bft) NO 54 0 min 0,000 mm 0,0 UV-I 63 W/m 9,3 C 10,7 C 20,9 km/h (4 Bft) 96,00 %
03.05.2017 19:24 14,8 C 15,0 C 70 % 1013,1 hPa 0,0 l/m 11,2 km/h (2 Bft) O 82 0 min 0,000 mm 0,0 UV-I 54 W/m 9,4 C 12,4 C 16,1 km/h (3 Bft) 94,74 %
03.05.2017 19:26 14,7 C 15,0 C 70 % 1013,2 hPa 0,0 l/m 11,4 km/h (2 Bft) O-NO 59 0 min 0,000 mm 0,0 UV-I 53 W/m 9,3 C 12,2 C 16,1 km/h (3 Bft) 100,00 %
03.05.2017 19:28 14,6 C 15,0 C 71 % 1013,2 hPa 0,0 l/m 11,4 km/h (2 Bft) O 81 0 min 0,000 mm 0,0 UV-I 51 W/m 9,4 C 12,1 C 19,3 km/h (3 Bft) 94,74 %
03.05.2017 19:30 14,5 C 15,0 C 72 % 1013,2 hPa 0,0 l/m 10,5 km/h (2 Bft) O-NO 66 0 min 0,000 mm 0,0 UV-I 53 W/m 9,5 C 12,3 C 16,1 km/h (3 Bft) 98,31 %
03.05.2017 19:32 14,4 C 15,0 C 72 % 1013,2 hPa 0,0 l/m 11,7 km/h (2 Bft) O-NO 70 0 min 0,000 mm 0,0 UV-I 55 W/m 9,4 C 11,7 C 17,7 km/h (3 Bft) 97,37 %
03.05.2017 19:34 14,3 C 15,0 C 72 % 1013,2 hPa 0,0 l/m 11,3 km/h (2 Bft) NO 45 0 min 0,000 mm 0,0 UV-I 58 W/m 9,3 C 11,8 C 17,7 km/h (3 Bft) 97,56 %
03.05.2017 19:36 14,3 C 15,0 C 72 % 1013,2 hPa 0,0 l/m 9,3 km/h (2 Bft) O-NO 64 2 min 0,000 mm 0,0 UV-I 63 W/m 9,3 C 12,7 C 14,5 km/h (3 Bft) 100,00 %
03.05.2017 19:38 14,3 C 15,0 C 73 % 1013,3 hPa 0,0 l/m 6,3 km/h (2 Bft) O-NO 58 2 min 0,000 mm 0,0 UV-I 71 W/m 9,5 C 14,3 C 8,0 km/h (2 Bft) 94,00 %
03.05.2017 19:40 14,2 C 15,0 C 73 % 1013,3 hPa 0,0 l/m 6,4 km/h (2 Bft) O-NO 57 2 min 0,000 mm 0,0 UV-I 79 W/m 9,4 C 14,2 C 9,7 km/h (2 Bft) 100,00 %
03.05.2017 19:42 14,1 C 15,0 C 74 % 1013,3 hPa 0,0 l/m 6,3 km/h (2 Bft) NO 49 2 min 0,000 mm 0,0 UV-I 84 W/m 9,5 C 14,1 C 9,7 km/h (2 Bft) 96,00 %
03.05.2017 19:44 13,9 C 15,0 C 74 % 1013,4 hPa 0,0 l/m 5,2 km/h (1 Bft) NO 49 2 min 0,000 mm 0,0 UV-I 90 W/m 9,3 C 13,9 C 8,0 km/h (2 Bft) 100,00 %
03.05.2017 19:46 13,9 C 15,0 C 75 % 1013,4 hPa 0,0 l/m 4,3 km/h (1 Bft) NO 44 2 min 0,000 mm 0,0 UV-I 92 W/m 9,5 C 13,9 C 9,7 km/h (2 Bft) 98,00 %
03.05.2017 19:48 13,8 C 15,0 C 74 % 1013,4 hPa 0,0 l/m 4,1 km/h (1 Bft) NO 51 2 min 0,000 mm 0,0 UV-I 91 W/m 9,2 C 13,8 C 9,7 km/h (2 Bft) 97,56 %
03.05.2017 19:50 13,9 C 15,0 C 74 % 1013,5 hPa 0,0 l/m 3,6 km/h (1 Bft) NO 37 2 min 0,000 mm 0,0 UV-I 89 W/m 9,3 C 13,9 C 6,4 km/h (2 Bft) 98,00 %
03.05.2017 19:52 13,9 C 15,0 C 73 % 1013,5 hPa 0,0 l/m 8,6 km/h (2 Bft) O-NO 63 2 min 0,000 mm 0,0 UV-I 63 W/m 9,1 C 12,6 C 14,5 km/h (3 Bft) 100,00 %
03.05.2017 19:54 13,9 C 15,0 C 72 % 1013,5 hPa 0,0 l/m 6,5 km/h (2 Bft) O-NO 62 2 min 0,000 mm 0,0 UV-I 58 W/m 8,9 C 13,9 C 9,7 km/h (2 Bft) 97,87 %
03.05.2017 19:56 14,0 C 15,0 C 71 % 1013,6 hPa 0,0 l/m 9,3 km/h (2 Bft) NO 47 2 min 0,000 mm 0,0 UV-I 52 W/m 8,8 C 12,4 C 14,5 km/h (3 Bft) 93,75 %
03.05.2017 19:58 14,0 C 14,4 C 71 % 1013,5 hPa 0,0 l/m 5,1 km/h (1 Bft) NO 50 2 min 0,000 mm 0,0 UV-I 46 W/m 8,8 C 14,0 C 6,4 km/h (2 Bft) 97,14 %
03.05.2017 20:00 13,9 C 14,4 C 72 % 1013,6 hPa 0,0 l/m 8,2 km/h (2 Bft) NO 51 2 min 0,076 mm 0,0 UV-I 41 W/m 8,9 C 12,8 C 14,5 km/h (3 Bft) 98,11 %
03.05.2017 20:02 13,8 C 14,4 C 71 % 1013,6 hPa 0,0 l/m 7,2 km/h (2 Bft) NO 56 2 min 0,000 mm 0,0 UV-I 35 W/m 8,6 C 13,3 C 11,3 km/h (2 Bft) 95,74 %
03.05.2017 20:04 13,8 C 14,4 C 71 % 1013,5 hPa 0,0 l/m 6,6 km/h (2 Bft) O-NO 65 2 min 0,000 mm 0,0 UV-I 29 W/m 8,6 C 13,7 C 11,3 km/h (2 Bft) 98,11 %
03.05.2017 20:06 13,8 C 14,4 C 71 % 1013,6 hPa 0,0 l/m 6,7 km/h (2 Bft) NO 53 2 min 0,000 mm 0,0 UV-I 24 W/m 8,6 C 13,6 C 9,7 km/h (2 Bft) 94,74 %
03.05.2017 20:08 13,8 C 14,4 C 71 % 1013,6 hPa 0,0 l/m 8,3 km/h (2 Bft) O-NO 57 2 min 0,000 mm 0,0 UV-I 18 W/m 8,6 C 12,7 C 16,1 km/h (3 Bft) 93,62 %
03.05.2017 20:10 13,7 C 14,4 C 70 % 1013,6 hPa 0,0 l/m 9,0 km/h (2 Bft) O-NO 57 0 min 0,000 mm 0,0 UV-I 19 W/m 8,3 C 12,2 C 14,5 km/h (3 Bft) 94,64 %
03.05.2017 20:12 13,7 C 14,4 C 70 % 1013,6 hPa 0,0 l/m 11,5 km/h (2 Bft) NO 36 0 min 0,000 mm 0,0 UV-I 14 W/m 8,3 C 11,0 C 17,7 km/h (3 Bft) 97,56 %
03.05.2017 20:14 13,7 C 14,4 C 70 % 1013,6 hPa 0,0 l/m 12,2 km/h (2 Bft) NO 51 0 min 0,000 mm 0,0 UV-I 11 W/m 8,3 C 10,7 C 19,3 km/h (3 Bft) 100,00 %
03.05.2017 20:16 13,6 C 14,4 C 70 % 1013,7 hPa 0,0 l/m 11,5 km/h (2 Bft) O-NO 63 0 min 0,000 mm 0,0 UV-I 9 W/m 8,2 C 10,9 C 16,1 km/h (3 Bft) 95,12 %
03.05.2017 20:18 13,6 C 14,4 C 71 % 1013,7 hPa 0,0 l/m 13,3 km/h (3 Bft) O-NO 72 0 min 0,000 mm 0,0 UV-I 8 W/m 8,4 C 10,1 C 17,7 km/h (3 Bft) 97,56 %
03.05.2017 20:20 13,5 C 14,4 C 71 % 1013,7 hPa 0,0 l/m 13,8 km/h (3 Bft) O-NO 73 0 min 0,000 mm 0,0 UV-I 7 W/m 8,3 C 9,8 C 20,9 km/h (4 Bft) 100,00 %
03.05.2017 20:22 13,4 C 14,4 C 71 % 1013,7 hPa 0,0 l/m 12,6 km/h (3 Bft) NO 55 0 min 0,000 mm 0,0 UV-I 7 W/m 8,3 C 10,2 C 20,9 km/h (4 Bft) 97,87 %
03.05.2017 20:24 13,4 C 14,4 C 71 % 1013,7 hPa 0,0 l/m 14,3 km/h (3 Bft) O-NO 71 0 min 0,000 mm 0,0 UV-I 6 W/m 8,3 C 9,5 C 19,3 km/h (3 Bft) 100,00 %
03.05.2017 20:26 13,4 C 14,4 C 71 % 1013,7 hPa 0,0 l/m 10,9 km/h (2 Bft) O-NO 71 0 min 0,000 mm 0,0 UV-I 5 W/m 8,3 C 10,9 C 16,1 km/h (3 Bft) 96,30 %
03.05.2017 20:28 13,3 C 14,4 C 71 % 1013,7 hPa 0,0 l/m 10,5 km/h (2 Bft) NO 52 0 min 0,000 mm 0,0 UV-I 5 W/m 8,2 C 11,0 C 14,5 km/h (3 Bft) 94,29 %
03.05.2017 20:30 13,3 C 14,4 C 72 % 1013,8 hPa 0,0 l/m 9,9 km/h (2 Bft) NO 38 0 min 0,000 mm 0,0 UV-I 5 W/m 8,4 C 11,3 C 16,1 km/h (3 Bft) 100,00 %
03.05.2017 20:32 13,3 C 14,4 C 72 % 1013,8 hPa 0,0 l/m 10,4 km/h (2 Bft) O-NO 66 0 min 0,000 mm 0,0 UV-I 5 W/m 8,4 C 11,0 C 14,5 km/h (3 Bft) 98,11 %
03.05.2017 20:34 13,2 C 14,4 C 72 % 1013,8 hPa 0,0 l/m 10,5 km/h (2 Bft) O-NO 67 0 min 0,000 mm 0,0 UV-I 1 W/m 8,3 C 10,9 C 17,7 km/h (3 Bft) 98,00 %
03.05.2017 20:36 13,2 C 14,4 C 72 % 1013,8 hPa 0,0 l/m 14,7 km/h (3 Bft) O-NO 74 0 min 0,000 mm 0,0 UV-I 0 W/m 8,3 C 9,1 C 19,3 km/h (3 Bft) 94,74 %
03.05.2017 20:38 13,2 C 14,4 C 72 % 1013,8 hPa 0,0 l/m 14,6 km/h (3 Bft) O-NO 63 0 min 0,000 mm 0,0 UV-I 0 W/m 8,3 C 9,2 C 25,7 km/h (4 Bft) 100,00 %
03.05.2017 20:40 13,2 C 14,4 C 72 % 1013,8 hPa 0,0 l/m 15,4 km/h (3 Bft) O-NO 61 0 min 0,000 mm 0,0 UV-I 0 W/m 8,3 C 8,9 C 20,9 km/h (4 Bft) 98,00 %
03.05.2017 20:42 13,2 C 14,4 C 73 % 1013,8 hPa 0,0 l/m 13,4 km/h (3 Bft) O-NO 57 0 min 0,000 mm 0,0 UV-I 0 W/m 8,5 C 9,6 C 19,3 km/h (3 Bft) 94,64 %
03.05.2017 20:44 13,1 C 14,4 C 73 % 1013,8 hPa 0,0 l/m 13,5 km/h (3 Bft) O 88 0 min 0,000 mm 0,0 UV-I 0 W/m 8,4 C 9,5 C 19,3 km/h (3 Bft) 95,45 %
03.05.2017 20:46 13,1 C 14,4 C 74 % 1013,8 hPa 0,0 l/m 14,4 km/h (3 Bft) O-NO 72 0 min 0,000 mm 0,0 UV-I 0 W/m 8,6 C 9,1 C 20,9 km/h (4 Bft) 98,11 %
03.05.2017 20:48 13,1 C 14,4 C 74 % 1013,8 hPa 0,0 l/m 14,1 km/h (3 Bft) O-NO 67 0 min 0,000 mm 0,0 UV-I 0 W/m 8,6 C 9,2 C 19,3 km/h (3 Bft) 95,45 %
03.05.2017 20:50 12,9 C 14,4 C 74 % 1013,8 hPa 0,0 l/m 11,5 km/h (2 Bft) O-NO 75 0 min 0,000 mm 0,0 UV-I 0 W/m 8,4 C 10,1 C 17,7 km/h (3 Bft) 95,74 %
03.05.2017 20:52 12,9 C 14,4 C 74 % 1013,9 hPa 0,0 l/m 12,7 km/h (3 Bft) NO 46 0 min 0,000 mm 0,0 UV-I 0 W/m 8,4 C 9,6 C 17,7 km/h (3 Bft) 96,00 %
03.05.2017 20:54 12,8 C 14,4 C 75 % 1013,7 hPa 0,0 l/m 10,3 km/h (2 Bft) O-NO 73 0 min 0,000 mm 0,0 UV-I 0 W/m 8,5 C 10,5 C 14,5 km/h (3 Bft) 97,37 %
03.05.2017 20:56 12,7 C 14,4 C 75 % 1013,7 hPa 0,0 l/m 13,4 km/h (3 Bft) O-NO 60 0 min 0,000 mm 0,0 UV-I 0 W/m 8,4 C 9,0 C 19,3 km/h (3 Bft) 98,00 %
03.05.2017 20:58 12,7 C 14,4 C 75 % 1013,7 hPa 0,0 l/m 13,0 km/h (3 Bft) O-NO 58 0 min 0,000 mm 0,0 UV-I 0 W/m 8,4 C 9,2 C 17,7 km/h (3 Bft) 97,56 %
03.05.2017 21:00 12,7 C 14,4 C 75 % 1013,9 hPa 0,0 l/m 15,3 km/h (3 Bft) O-NO 70 0 min 0,051 mm 0,0 UV-I 0 W/m 8,4 C 8,3 C 24,1 km/h (4 Bft) 94,34 %
03.05.2017 21:02 12,6 C 14,4 C 75 % 1013,9 hPa 0,0 l/m 13,0 km/h (3 Bft) O-NO 57 0 min 0,000 mm 0,0 UV-I 0 W/m 8,3 C 9,1 C 19,3 km/h (3 Bft) 94,74 %
03.05.2017 21:04 12,6 C 14,4 C 76 % 1013,8 hPa 0,0 l/m 9,0 km/h (2 Bft) NO 53 0 min 0,000 mm 0,0 UV-I 0 W/m 8,5 C 11,0 C 12,9 km/h (3 Bft) 98,21 %
03.05.2017 21:06 12,5 C 14,4 C 76 % 1013,8 hPa 0,0 l/m 12,6 km/h (3 Bft) O-NO 73 0 min 0,000 mm 0,0 UV-I 0 W/m 8,4 C 9,1 C 19,3 km/h (3 Bft) 96,00 %
03.05.2017 21:08 12,4 C 14,4 C 76 % 1013,8 hPa 0,0 l/m 12,7 km/h (3 Bft) O-NO 65 0 min 0,000 mm 0,0 UV-I 0 W/m 8,3 C 9,0 C 20,9 km/h (4 Bft) 94,74 %
03.05.2017 21:10 12,4 C 14,4 C 76 % 1013,8 hPa 0,0 l/m 11,3 km/h (2 Bft) O-NO 74 0 min 0,000 mm 0,0 UV-I 0 W/m 8,3 C 9,6 C 19,3 km/h (3 Bft) 96,00 %
03.05.2017 21:12 12,3 C 14,4 C 76 % 1013,8 hPa 0,0 l/m 9,0 km/h (2 Bft) O-NO 66 0 min 0,000 mm 0,0 UV-I 0 W/m 8,2 C 10,7 C 12,9 km/h (3 Bft) 93,33 %
03.05.2017 21:14 12,2 C 14,4 C 77 % 1013,8 hPa 0,0 l/m 8,4 km/h (2 Bft) O-NO 59 0 min 0,000 mm 0,0 UV-I 0 W/m 8,3 C 10,9 C 12,9 km/h (3 Bft) 95,59 %
03.05.2017 21:16 12,2 C 14,4 C 77 % 1013,9 hPa 0,0 l/m 6,6 km/h (2 Bft) O 86 0 min 0,000 mm 0,0 UV-I 0 W/m 8,3 C 12,1 C 12,9 km/h (3 Bft) 95,45 %
03.05.2017 21:18 12,1 C 14,4 C 77 % 1013,9 hPa 0,0 l/m 4,5 km/h (1 Bft) O-NO 63 0 min 0,000 mm 0,0 UV-I 0 W/m 8,2 C 12,1 C 8,0 km/h (2 Bft) 94,00 %
03.05.2017 21:20 12,0 C 14,4 C 78 % 1014,0 hPa 0,0 l/m 4,2 km/h (1 Bft) O-NO 65 0 min 0,000 mm 0,0 UV-I 0 W/m 8,3 C 12,0 C 6,4 km/h (2 Bft) 97,37 %
03.05.2017 21:22 11,9 C 14,4 C 78 % 1014,0 hPa 0,0 l/m 4,0 km/h (1 Bft) O 80 0 min 0,000 mm 0,0 UV-I 0 W/m 8,2 C 11,9 C 6,4 km/h (2 Bft) 98,00 %
03.05.2017 21:24 11,8 C 14,4 C 78 % 1014,0 hPa 0,0 l/m 4,4 km/h (1 Bft) O-NO 69 0 min 0,000 mm 0,0 UV-I 0 W/m 8,1 C 11,8 C 6,4 km/h (2 Bft) 96,00 %
03.05.2017 21:26 11,7 C 14,4 C 79 % 1014,1 hPa 0,0 l/m 3,7 km/h (1 Bft) O-NO 74 0 min 0,000 mm 0,0 UV-I 0 W/m 8,2 C 11,7 C 4,8 km/h (1 Bft) 100,00 %
03.05.2017 21:28 11,7 C 14,4 C 79 % 1014,2 hPa 0,0 l/m 2,5 km/h (1 Bft) O 85 0 min 0,000 mm 0,0 UV-I 0 W/m 8,2 C 11,7 C 4,8 km/h (1 Bft) 100,00 %
03.05.2017 21:30 11,8 C 14,4 C 79 % 1014,2 hPa 0,0 l/m 1,8 km/h (1 Bft) O-SO 119 0 min 0,000 mm 0,0 UV-I 0 W/m 8,3 C 11,8 C 4,8 km/h (1 Bft) 96,23 %
03.05.2017 21:32 11,8 C 14,4 C 78 % 1014,4 hPa 0,0 l/m 3,6 km/h (1 Bft) O-NO 74 0 min 0,000 mm 0,0 UV-I 0 W/m 8,1 C 11,8 C 6,4 km/h (2 Bft) 100,00 %
03.05.2017 21:34 11,8 C 14,4 C 78 % 1014,4 hPa 0,0 l/m 1,3 km/h (1 Bft) O-NO 74 0 min 0,000 mm 0,0 UV-I 0 W/m 8,1 C 11,8 C 3,2 km/h (1 Bft) 100,00 %
03.05.2017 21:36 11,8 C 14,4 C 78 % 1014,5 hPa 0,0 l/m 0,2 km/h (0 Bft) O-NO 74 0 min 0,000 mm 0,0 UV-I 0 W/m 8,1 C 11,8 C 3,2 km/h (1 Bft) 96,00 %
03.05.2017 21:38 11,8 C 14,4 C 78 % 1014,5 hPa 0,0 l/m 0,0 km/h (0 Bft) O-NO 74 0 min 0,000 mm 0,0 UV-I 0 W/m 8,1 C 11,8 C 0,0 km/h (0 Bft) 100,00 %
03.05.2017 21:40 11,8 C 14,4 C 78 % 1014,6 hPa 0,0 l/m 0,2 km/h (0 Bft) O-NO 74 0 min 0,000 mm 0,0 UV-I 0 W/m 8,1 C 11,8 C 3,2 km/h (1 Bft) 100,00 %
03.05.2017 21:42 11,8 C 14,4 C 78 % 1014,6 hPa 0,0 l/m 0,6 km/h (0 Bft) O-NO 74 0 min 0,000 mm 0,0 UV-I 0 W/m 8,1 C 11,8 C 4,8 km/h (1 Bft) 100,00 %
03.05.2017 21:44 11,9 C 14,4 C 78 % 1014,6 hPa 0,0 l/m 4,7 km/h (1 Bft) O-SO 106 0 min 0,000 mm 0,0 UV-I 0 W/m 8,2 C 11,9 C 9,7 km/h (2 Bft) 97,37 %
03.05.2017 21:46 11,9 C 14,4 C 78 % 1014,6 hPa 0,0 l/m 8,7 km/h (2 Bft) O-NO 76 0 min 0,000 mm 0,0 UV-I 0 W/m 8,2 C 10,4 C 12,9 km/h (3 Bft) 98,00 %
03.05.2017 21:48 11,9 C 14,4 C 78 % 1014,6 hPa 0,0 l/m 7,5 km/h (2 Bft) O-NO 74 0 min 0,000 mm 0,0 UV-I 0 W/m 8,2 C 11,2 C 11,3 km/h (2 Bft) 98,00 %
03.05.2017 21:50 11,9 C 14,4 C 78 % 1014,6 hPa 0,0 l/m 6,1 km/h (2 Bft) O 85 0 min 0,000 mm 0,0 UV-I 0 W/m 8,2 C 11,9 C 11,3 km/h (2 Bft) 97,44 %
03.05.2017 21:52 11,9 C 14,4 C 78 % 1014,6 hPa 0,0 l/m 4,2 km/h (1 Bft) O-SO 122 0 min 0,000 mm 0,0 UV-I 0 W/m 8,2 C 11,9 C 9,7 km/h (2 Bft) 100,00 %
03.05.2017 21:54 11,9 C 14,4 C 78 % 1014,6 hPa 0,0 l/m 1,8 km/h (1 Bft) O-SO 123 0 min 0,000 mm 0,0 UV-I 0 W/m 8,2 C 11,9 C 3,2 km/h (1 Bft) 100,00 %
03.05.2017 21:56 11,9 C 14,4 C 78 % 1014,7 hPa 0,0 l/m 0,8 km/h (0 Bft) O-SO 123 0 min 0,000 mm 0,0 UV-I 0 W/m 8,2 C 11,9 C 3,2 km/h (1 Bft) 97,44 %
03.05.2017 21:58 11,8 C 14,4 C 78 % 1014,6 hPa 0,0 l/m 1,1 km/h (1 Bft) O-SO 123 0 min 0,000 mm 0,0 UV-I 0 W/m 8,1 C 11,8 C 3,2 km/h (1 Bft) 96,23 %
03.05.2017 22:00 11,8 C 14,4 C 78 % 1014,7 hPa 0,0 l/m 3,9 km/h (1 Bft) O 92 0 min 0,000 mm 0,0 UV-I 0 W/m 8,1 C 11,8 C 6,4 km/h (2 Bft) 100,00 %
03.05.2017 22:02 11,8 C 14,4 C 78 % 1014,6 hPa 0,0 l/m 3,8 km/h (1 Bft) O 83 0 min 0,025 mm 0,0 UV-I 0 W/m 8,1 C 11,8 C 6,4 km/h (2 Bft) 98,11 %
03.05.2017 22:04 11,8 C 14,4 C 78 % 1014,6 hPa 0,0 l/m 4,4 km/h (1 Bft) O 81 0 min 0,000 mm 0,0 UV-I 0 W/m 8,1 C 11,8 C 6,4 km/h (2 Bft) 97,37 %
03.05.2017 22:06 11,8 C 14,4 C 78 % 1014,6 hPa 0,0 l/m 3,5 km/h (1 Bft) O 80 0 min 0,000 mm 0,0 UV-I 0 W/m 8,1 C 11,8 C 6,4 km/h (2 Bft) 100,00 %
03.05.2017 22:08 11,8 C 14,4 C 79 % 1014,6 hPa 0,0 l/m 2,5 km/h (1 Bft) O 80 0 min 0,000 mm 0,0 UV-I 0 W/m 8,3 C 11,8 C 4,8 km/h (1 Bft) 97,87 %
03.05.2017 22:10 11,8 C 14,4 C 79 % 1014,6 hPa 0,0 l/m 2,9 km/h (1 Bft) O 80 0 min 0,000 mm 0,0 UV-I 0 W/m 8,3 C 11,8 C 4,8 km/h (1 Bft) 100,00 %
03.05.2017 22:12 11,8 C 14,4 C 79 % 1014,6 hPa 0,0 l/m 1,9 km/h (1 Bft) O 80 0 min 0,000 mm 0,0 UV-I 0 W/m 8,3 C 11,8 C 4,8 km/h (1 Bft) 98,00 %
03.05.2017 22:14 11,7 C 14,4 C 80 % 1014,5 hPa 0,0 l/m 3,5 km/h (1 Bft) O 80 0 min 0,000 mm 0,0 UV-I 0 W/m 8,4 C 11,7 C 4,8 km/h (1 Bft) 100,00 %
03.05.2017 22:16 11,6 C 14,4 C 81 % 1014,6 hPa 0,0 l/m 1,6 km/h (1 Bft) O 80 0 min 0,000 mm 0,0 UV-I 0 W/m 8,5 C 11,6 C 4,8 km/h (1 Bft) 100,00 %
03.05.2017 22:18 11,5 C 14,4 C 81 % 1014,7 hPa 0,0 l/m 1,3 km/h (1 Bft) O 80 0 min 0,000 mm 0,0 UV-I 0 W/m 8,4 C 11,5 C 4,8 km/h (1 Bft) 97,87 %
03.05.2017 22:20 11,4 C 14,4 C 82 % 1014,7 hPa 0,0 l/m 1,3 km/h (1 Bft) O 79 0 min 0,000 mm 0,0 UV-I 0 W/m 8,4 C 11,4 C 3,2 km/h (1 Bft) 100,00 %
03.05.2017 22:22 11,3 C 14,4 C 82 % 1014,7 hPa 0,0 l/m 0,5 km/h (0 Bft) O 79 0 min 0,000 mm 0,0 UV-I 0 W/m 8,3 C 11,3 C 1,6 km/h (1 Bft) 98,00 %
03.05.2017 22:24 11,3 C 14,4 C 82 % 1014,6 hPa 0,0 l/m 0,5 km/h (0 Bft) O 79 0 min 0,000 mm 0,0 UV-I 0 W/m 8,3 C 11,3 C 3,2 km/h (1 Bft) 94,74 %
03.05.2017 22:26 11,2 C 14,4 C 83 % 1014,6 hPa 0,0 l/m 1,7 km/h (1 Bft) O 79 0 min 0,000 mm 0,0 UV-I 0 W/m 8,4 C 11,2 C 4,8 km/h (1 Bft) 96,00 %
03.05.2017 22:28 11,1 C 14,4 C 83 % 1014,6 hPa 0,0 l/m 0,7 km/h (0 Bft) O 79 0 min 0,000 mm 0,0 UV-I 0 W/m 8,3 C 11,1 C 3,2 km/h (1 Bft) 96,23 %
03.05.2017 22:30 11,1 C 14,4 C 83 % 1014,6 hPa 0,0 l/m 1,5 km/h (1 Bft) O-NO 77 0 min 0,000 mm 0,0 UV-I 0 W/m 8,3 C 11,1 C 4,8 km/h (1 Bft) 94,44 %
03.05.2017 22:32 11,1 C 14,4 C 83 % 1014,6 hPa 0,0 l/m 0,1 km/h (0 Bft) O-NO 77 0 min 0,000 mm 0,0 UV-I 0 W/m 8,3 C 11,1 C 1,6 km/h (1 Bft) 98,11 %
03.05.2017 22:34 11,2 C 14,4 C 84 % 1014,6 hPa 0,0 l/m 0,2 km/h (0 Bft) O-NO 77 0 min 0,000 mm 0,0 UV-I 0 W/m 8,6 C 11,2 C 1,6 km/h (1 Bft) 95,74 %
03.05.2017 22:36 11,3 C 14,4 C 83 % 1014,6 hPa 0,0 l/m 1,8 km/h (1 Bft) O-NO 77 0 min 0,000 mm 0,0 UV-I 0 W/m 8,5 C 11,3 C 3,2 km/h (1 Bft) 98,00 %
03.05.2017 22:38 11,3 C 14,4 C 84 % 1014,6 hPa 0,0 l/m 0,3 km/h (0 Bft) O-NO 77 0 min 0,000 mm 0,0 UV-I 0 W/m 8,7 C 11,3 C 1,6 km/h (1 Bft) 96,00 %
03.05.2017 22:40 11,3 C 14,4 C 84 % 1014,6 hPa 0,0 l/m 0,8 km/h (0 Bft) O-NO 77 0 min 0,000 mm 0,0 UV-I 0 W/m 8,7 C 11,3 C 3,2 km/h (1 Bft) 95,74 %
03.05.2017 22:42 11,3 C 14,4 C 83 % 1014,6 hPa 0,0 l/m 0,0 km/h (0 Bft) O-NO 77 0 min 0,000 mm 0,0 UV-I 0 W/m 8,5 C 11,3 C 0,0 km/h (0 Bft) 97,87 %
03.05.2017 22:44 11,3 C 14,4 C 83 % 1014,6 hPa 0,0 l/m 0,3 km/h (0 Bft) O-NO 77 0 min 0,000 mm 0,0 UV-I 0 W/m 8,5 C 11,3 C 3,2 km/h (1 Bft) 95,45 %
03.05.2017 22:46 11,3 C 14,4 C 83 % 1014,7 hPa 0,0 l/m 3,2 km/h (1 Bft) O-NO 66 0 min 0,000 mm 0,0 UV-I 0 W/m 8,5 C 11,3 C 9,7 km/h (2 Bft) 95,74 %
03.05.2017 22:48 11,4 C 14,4 C 83 % 1014,7 hPa 0,0 l/m 4,8 km/h (1 Bft) O-SO 111 0 min 0,000 mm 0,0 UV-I 0 W/m 8,6 C 11,4 C 6,4 km/h (2 Bft) 95,74 %
03.05.2017 22:50 11,4 C 14,4 C 83 % 1014,7 hPa 0,0 l/m 2,8 km/h (1 Bft) O-SO 111 0 min 0,000 mm 0,0 UV-I 0 W/m 8,6 C 11,4 C 4,8 km/h (1 Bft) 89,36 %
03.05.2017 22:52 11,4 C 14,4 C 83 % 1014,7 hPa 0,0 l/m 3,8 km/h (1 Bft) O-SO 117 0 min 0,000 mm 0,0 UV-I 0 W/m 8,6 C 11,4 C 6,4 km/h (2 Bft) 97,37 %
03.05.2017 22:54 11,4 C 14,4 C 83 % 1014,7 hPa 0,0 l/m 3,4 km/h (1 Bft) SO 140 0 min 0,000 mm 0,0 UV-I 0 W/m 8,6 C 11,4 C 4,8 km/h (1 Bft) 94,00 %
03.05.2017 22:56 11,5 C 14,4 C 83 % 1014,8 hPa 0,0 l/m 4,1 km/h (1 Bft) SO 130 0 min 0,000 mm 0,0 UV-I 0 W/m 8,7 C 11,5 C 6,4 km/h (2 Bft) 90,00 %
03.05.2017 22:58 11,4 C 14,4 C 83 % 1014,7 hPa 0,0 l/m 3,2 km/h (1 Bft) SO 130 0 min 0,000 mm 0,0 UV-I 0 W/m 8,6 C 11,4 C 6,4 km/h (2 Bft) 95,74 %
03.05.2017 23:00 11,4 C 14,4 C 83 % 1014,8 hPa 0,0 l/m 2,6 km/h (1 Bft) SO 133 0 min 0,000 mm 0,0 UV-I 0 W/m 8,6 C 11,4 C 4,8 km/h (1 Bft) 95,74 %
03.05.2017 23:03 11,3 C 14,4 C 84 % 1014,7 hPa 0,0 l/m 4,6 km/h (1 Bft) SO 131 0 min 0,000 mm 0,0 UV-I 0 W/m 8,7 C 11,3 C 11,3 km/h (2 Bft) 93,51 %
03.05.2017 23:04 11,3 C 14,4 C 84 % 1014,7 hPa 0,0 l/m 5,3 km/h (1 Bft) O 95 0 min 0,000 mm 0,0 UV-I 0 W/m 8,7 C 11,3 C 6,4 km/h (2 Bft) 100,00 %
03.05.2017 23:06 11,3 C 14,4 C 84 % 1014,8 hPa 0,0 l/m 4,0 km/h (1 Bft) O 79 0 min 0,000 mm 0,0 UV-I 0 W/m 8,7 C 11,3 C 6,4 km/h (2 Bft) 96,23 %
03.05.2017 23:08 11,2 C 14,4 C 84 % 1014,8 hPa 0,0 l/m 3,7 km/h (1 Bft) O 79 0 min 0,000 mm 0,0 UV-I 0 W/m 8,6 C 11,2 C 6,4 km/h (2 Bft) 93,62 %
03.05.2017 23:10 11,2 C 14,4 C 85 % 1014,8 hPa 0,0 l/m 4,7 km/h (1 Bft) O-SO 107 0 min 0,000 mm 0,0 UV-I 0 W/m 8,8 C 11,2 C 8,0 km/h (2 Bft) 100,00 %
03.05.2017 23:12 11,2 C 14,4 C 85 % 1014,8 hPa 0,0 l/m 5,0 km/h (1 Bft) O 101 0 min 0,000 mm 0,0 UV-I 0 W/m 8,8 C 11,2 C 6,4 km/h (2 Bft) 90,57 %
03.05.2017 23:14 11,1 C 14,4 C 85 % 1014,7 hPa 0,0 l/m 4,9 km/h (1 Bft) O-NO 76 0 min 0,000 mm 0,0 UV-I 0 W/m 8,7 C 11,1 C 8,0 km/h (2 Bft) 95,74 %
03.05.2017 23:16 11,1 C 14,4 C 85 % 1014,6 hPa 0,0 l/m 5,3 km/h (1 Bft) O-NO 58 0 min 0,000 mm 0,0 UV-I 0 W/m 8,7 C 11,1 C 6,4 km/h (2 Bft) 91,49 %
03.05.2017 23:18 11,1 C 14,4 C 85 % 1014,6 hPa 0,0 l/m 6,3 km/h (2 Bft) O-NO 57 0 min 0,000 mm 0,0 UV-I 0 W/m 8,7 C 11,1 C 8,0 km/h (2 Bft) 96,00 %
03.05.2017 23:20 11,1 C 14,4 C 85 % 1014,6 hPa 0,0 l/m 6,8 km/h (2 Bft) O-NO 57 0 min 0,000 mm 0,0 UV-I 0 W/m 8,7 C 10,8 C 8,0 km/h (2 Bft) 94,74 %
03.05.2017 23:22 11,1 C 14,4 C 86 % 1014,5 hPa 0,0 l/m 6,8 km/h (2 Bft) O-NO 62 0 min 0,000 mm 0,0 UV-I 0 W/m 8,8 C 10,8 C 9,7 km/h (2 Bft) 96,23 %
03.05.2017 23:24 11,0 C 14,4 C 86 % 1014,4 hPa 0,0 l/m 9,5 km/h (2 Bft) NO 50 0 min 0,000 mm 0,0 UV-I 0 W/m 8,7 C 9,0 C 12,9 km/h (3 Bft) 97,73 %
03.05.2017 23:26 10,9 C 14,4 C 87 % 1014,3 hPa 0,0 l/m 8,8 km/h (2 Bft) NO 53 0 min 0,000 mm 0,0 UV-I 0 W/m 8,8 C 9,3 C 11,3 km/h (2 Bft) 100,00 %
03.05.2017 23:28 10,9 C 14,4 C 87 % 1014,3 hPa 0,0 l/m 7,1 km/h (2 Bft) O-NO 57 0 min 0,000 mm 0,0 UV-I 0 W/m 8,8 C 10,4 C 11,3 km/h (2 Bft) 97,56 %
03.05.2017 23:30 10,8 C 14,4 C 87 % 1014,3 hPa 0,0 l/m 5,9 km/h (2 Bft) O-NO 69 0 min 0,000 mm 0,0 UV-I 0 W/m 8,7 C 10,8 C 8,0 km/h (2 Bft) 100,00 %
03.05.2017 23:32 10,8 C 14,4 C 88 % 1014,4 hPa 0,0 l/m 3,7 km/h (1 Bft) SO 144 0 min 0,000 mm 0,0 UV-I 0 W/m 8,9 C 10,8 C 6,4 km/h (2 Bft) 98,00 %
03.05.2017 23:34 10,8 C 14,4 C 88 % 1014,4 hPa 0,0 l/m 3,5 km/h (1 Bft) S-SO 153 0 min 0,000 mm 0,0 UV-I 0 W/m 8,9 C 10,8 C 6,4 km/h (2 Bft) 100,00 %
03.05.2017 23:36 10,8 C 14,4 C 88 % 1014,5 hPa 0,0 l/m 3,0 km/h (1 Bft) S-SO 162 0 min 0,000 mm 0,0 UV-I 0 W/m 8,9 C 10,8 C 6,4 km/h (2 Bft) 100,00 %
03.05.2017 23:38 10,8 C 14,4 C 88 % 1014,4 hPa 0,0 l/m 2,6 km/h (1 Bft) S-SO 155 0 min 0,000 mm 0,0 UV-I 0 W/m 8,9 C 10,8 C 6,4 km/h (2 Bft) 100,00 %
03.05.2017 23:40 10,8 C 14,4 C 88 % 1014,4 hPa 0,0 l/m 2,0 km/h (1 Bft) S-SO 153 0 min 0,000 mm 0,0 UV-I 0 W/m 8,9 C 10,8 C 4,8 km/h (1 Bft) 100,00 %
03.05.2017 23:42 10,8 C 14,4 C 88 % 1014,4 hPa 0,0 l/m 1,0 km/h (0 Bft) S-SO 153 0 min 0,000 mm 0,0 UV-I 0 W/m 8,9 C 10,8 C 3,2 km/h (1 Bft) 100,00 %
03.05.2017 23:44 10,8 C 14,4 C 88 % 1014,4 hPa 0,0 l/m 1,7 km/h (1 Bft) S-SO 153 0 min 0,000 mm 0,0 UV-I 0 W/m 8,9 C 10,8 C 3,2 km/h (1 Bft) 100,00 %
03.05.2017 23:46 10,8 C 14,4 C 88 % 1014,4 hPa 0,0 l/m 1,5 km/h (1 Bft) S-SO 153 0 min 0,000 mm 0,0 UV-I 0 W/m 8,9 C 10,8 C 3,2 km/h (1 Bft) 98,00 %
03.05.2017 23:48 10,8 C 14,4 C 88 % 1014,4 hPa 0,0 l/m 3,1 km/h (1 Bft) S-SO 148 0 min 0,000 mm 0,0 UV-I 0 W/m 8,9 C 10,8 C 6,4 km/h (2 Bft) 100,00 %
03.05.2017 23:50 10,7 C 14,4 C 89 % 1014,4 hPa 0,0 l/m 1,2 km/h (1 Bft) S-SO 148 0 min 0,000 mm 0,0 UV-I 0 W/m 9,0 C 10,7 C 4,8 km/h (1 Bft) 98,11 %
03.05.2017 23:52 10,7 C 14,4 C 89 % 1014,4 hPa 0,0 l/m 3,7 km/h (1 Bft) S-SO 155 0 min 0,000 mm 0,0 UV-I 0 W/m 9,0 C 10,7 C 9,7 km/h (2 Bft) 100,00 %
03.05.2017 23:54 10,7 C 14,4 C 89 % 1014,4 hPa 0,0 l/m 3,7 km/h (1 Bft) SO 128 0 min 0,000 mm 0,0 UV-I 0 W/m 9,0 C 10,7 C 6,4 km/h (2 Bft) 98,11 %
03.05.2017 23:56 10,7 C 14,4 C 89 % 1014,4 hPa 0,0 l/m 3,7 km/h (1 Bft) SO 138 0 min 0,000 mm 0,0 UV-I 0 W/m 9,0 C 10,7 C 6,4 km/h (2 Bft) 94,74 %
03.05.2017 23:58 10,7 C 14,4 C 89 % 1014,3 hPa 0,0 l/m 4,0 km/h (1 Bft) S-SO 147 0 min 0,000 mm 0,0 UV-I 0 W/m 9,0 C 10,7 C 8,0 km/h (2 Bft) 98,21 %
_ Min-Zeit 04:45 04:25 11:55 18:12 - 12:55 - - - - - - 00:00 06:00 21:38 04:05
Minimum _ 9,0 C 12,8 C 55 % 1013,0 hPa - 0,0 km/h (0 Bft) - - - - - - 5,6 C 2,0 C 0,0 km/h (0 Bft) 70,18 %
_ Max-Zeit 11:50 17:50 23:50 00:00 00:00 07:10 - - 05:55 11:00 12:25 11:20 12:25 11:45 07:05 00:30
Maximum _ 17,8 C 15,0 C 89 % 1015,9 hPa 0,0 l/m 22,5 km/h
O-NO (4 Bft)
- - 5 min 0,457 mm 4,5 UV-I 919 W/m 11,2 C 17,7 C 33,8 km/h
O-NO (5 Bft)
100,00 %
Durchschnitt _ 13,1 C 13,8 C 73 % 1014,6 hPa #0,0 l/m 11,7 km/h (2 Bft) O-NO - #12:10 h #4,013 mm 2,1 UV-I 385 W/m 8,2 C 10,2 C 18,8 km/h (3 Bft) 96,44 %